DL9BGG-13 Weather Reports


Display with metric or nautical units.
time (UTC)temp
F
wind
direction
speed
MPH
gust
MPH
rain 1hr
in
rain 24hr
in
rain mn
in
humidity
%
barometer
mb
20260902223040 63 225 7.0 0.0 0.00 0.00 0.00 84 1061.7
20260902222911 63 202 10.0 0.0 0.00 0.00 0.00 84 1061.7
20260902222757 63 225 8.0 0.0 0.00 0.00 0.00 84 1061.7
20260902222634 63 202 8.0 0.0 0.00 0.00 0.00 84 1061.8
20260902222513 63 202 2.0 0.0 0.00 0.00 0.00 84 1061.7
20260902222351 63 225 8.0 0.0 0.00 0.00 0.00 84 1061.8
20260902222236 63 180 5.0 0.0 0.00 0.00 0.00 84 1061.9
20260902222123 63 225 2.0 0.0 0.00 0.00 0.00 84 1062.0
20260902222010 63 202 0.0 0.0 0.00 0.00 0.00 84 1061.8
20260902221849 63 225 8.0 0.0 0.00 0.00 0.00 84 1061.9
20260902221745 63 202 6.0 0.0 0.00 0.00 0.00 84 1061.9
20260902221639 63 247 6.0 0.0 0.00 0.00 0.00 84 1062.0
20260902221525 63 180 6.0 0.0 0.00 0.00 0.00 84 1061.9
20260902221405 63 225 5.0 0.0 0.00 0.00 0.00 83 1062.0
20260902221257 63 202 0.0 0.0 0.00 0.00 0.00 83 1062.0
20260902221136 63 202 3.0 0.0 0.00 0.00 0.00 83 1062.0
20260902221030 63 180 3.0 0.0 0.00 0.00 0.00 83 1061.9
20260902220916 63 202 0.0 0.0 0.00 0.00 0.00 83 1061.9
20260902220804 63 202 4.0 0.0 0.00 0.00 0.00 83 1061.9
20260902220657 63 202 3.0 0.0 0.00 0.00 0.00 83 1061.9
20260902220544 63 202 0.0 0.0 0.00 0.00 0.00 83 1061.9
20260902220431 63 202 3.0 0.0 0.00 0.00 0.00 84 1061.8
20260902220326 63 180 5.0 0.0 0.00 0.00 0.00 84 1061.9
20260902220213 63 180 5.0 0.0 0.00 0.00 0.00 84 1062.0
20260902220101 62 225 0.0 0.0 0.00 0.00 0.00 84 1061.8
20260902215954 62 225 6.0 0.0 0.00 0.00 0.00 84 1061.8
20260902215833 62 202 6.0 0.0 0.00 0.00 0.00 84 1061.9
20260902215712 62 225 7.0 0.0 0.00 0.00 0.00 84 1061.9
20260902215559 62 202 6.0 0.0 0.00 0.00 0.00 84 1061.9
20260902215446 62 202 6.0 0.0 0.00 0.00 0.00 84 1062.0
20260902215341 62 180 0.0 0.0 0.00 0.00 0.00 84 1061.9
20260902215219 62 202 8.0 0.0 0.00 0.00 0.00 84 1062.0
20260902215058 62 180 6.0 0.0 0.00 0.00 0.00 84 1062.1
20260902214939 62 202 2.0 0.0 0.00 0.00 0.00 84 1061.9
20260902214832 62 225 5.0 0.0 0.00 0.00 0.00 84 1061.9
20260902214729 62 202 5.0 0.0 0.00 0.00 0.00 84 1061.8
20260902214621 62 202 4.0 0.0 0.00 0.00 0.00 84 1062.0
20260902214509 62 202 4.0 0.0 0.00 0.00 0.00 83 1062.0
20260902214404 62 180 0.0 0.0 0.00 0.00 0.00 83 1061.9
20260902214253 62 180 2.0 0.0 0.00 0.00 0.00 83 1061.9
20260902214145 62 225 0.0 0.0 0.00 0.00 0.00 83 1061.9
20260902214033 62 180 4.0 0.0 0.00 0.00 0.00 83 1062.0
20260902213920 62 157 6.0 0.0 0.00 0.00 0.00 83 1061.9
20260902213750 62 202 4.0 0.0 0.00 0.00 0.00 83 1062.1
20260902213630 62 202 6.0 0.0 0.00 0.00 0.00 83 1062.0
20260902213523 62 202 4.0 0.0 0.00 0.00 0.00 82 1062.0
20260902213411 62 225 6.0 0.0 0.00 0.00 0.00 82 1062.0
20260902213305 63 202 0.0 0.0 0.00 0.00 0.00 82 1062.1
20260902213145 63 202 7.0 0.0 0.00 0.00 0.00 82 1062.1
20260902213031 62 202 3.0 0.0 0.00 0.00 0.00 82 1062.0
20260902212856 63 202 6.0 0.0 0.00 0.00 0.00 82 1062.0
20260902212749 63 202 0.0 0.0 0.00 0.00 0.00 82 1062.1
20260902212627 63 202 2.0 0.0 0.00 0.00 0.00 82 1062.0
20260902212458 63 202 4.0 0.0 0.00 0.00 0.00 82 1062.1
20260902212353 63 202 4.0 0.0 0.00 0.00 0.00 82 1062.1
20260902212240 63 202 2.0 0.0 0.00 0.00 0.00 82 1062.1
20260902212127 63 225 0.0 0.0 0.00 0.00 0.00 83 1062.1
20260902212014 63 225 2.0 0.0 0.00 0.00 0.00 83 1062.0
20260902211909 63 202 5.0 0.0 0.00 0.00 0.00 83 1062.1
20260902211756 63 180 0.0 0.0 0.00 0.00 0.00 83 1062.1
20260902211649 63 225 5.0 0.0 0.00 0.00 0.00 83 1062.1
20260902211539 63 225 2.0 0.0 0.00 0.00 0.00 83 1062.1
20260902211433 63 202 6.0 0.0 0.00 0.00 0.00 83 1062.0
20260902211327 63 202 5.0 0.0 0.00 0.00 0.00 83 1062.1
20260902211215 63 202 4.0 0.0 0.00 0.00 0.00 83 1062.2
20260902211053 63 202 4.0 0.0 0.00 0.00 0.00 83 1062.1
20260902210940 63 202 6.0 0.0 0.00 0.00 0.00 83 1062.1
20260902210827 63 180 3.0 0.0 0.00 0.00 0.00 83 1062.0
20260902210714 63 180 5.0 0.0 0.00 0.00 0.00 83 1062.1
20260902210601 63 202 4.0 0.0 0.00 0.00 0.00 83 1062.1
20260902210455 63 225 2.0 0.0 0.00 0.00 0.00 83 1062.1
20260902210344 63 180 4.0 0.0 0.00 0.00 0.00 83 1062.2
20260902210229 63 202 0.0 0.0 0.00 0.00 0.00 83 1062.1
20260902210108 63 180 4.0 0.0 0.00 0.00 0.00 82 1062.1
20260902205955 63 202 5.0 0.0 0.00 0.00 0.00 82 1062.2
20260902205834 63 180 0.0 0.0 0.00 0.00 0.00 82 1062.1
20260902205721 63 202 3.0 0.0 0.00 0.00 0.00 82 1062.2
20260902205617 63 202 0.0 0.0 0.00 0.00 0.00 82 1062.2
20260902205510 63 202 0.0 0.0 0.00 0.00 0.00 82 1062.2
20260902205357 63 202 0.0 0.0 0.00 0.00 0.00 82 1062.2
20260902205244 63 202 0.0 0.0 0.00 0.00 0.00 82 1062.1
20260902205134 63 202 0.0 0.0 0.00 0.00 0.00 82 1062.2
20260902205019 63 225 4.0 0.0 0.00 0.00 0.00 82 1062.1
20260902204913 63 180 3.0 0.0 0.00 0.00 0.00 82 1062.3
20260902204751 63 202 0.0 0.0 0.00 0.00 0.00 82 1062.3
20260902204640 63 202 4.0 0.0 0.00 0.00 0.00 82 1062.3
20260902204517 63 180 5.0 0.0 0.00 0.00 0.00 82 1062.3
20260902204359 63 180 3.0 0.0 0.00 0.00 0.00 82 1062.3
20260902204252 63 202 0.0 0.0 0.00 0.00 0.00 82 1062.3
20260902204146 63 202 4.0 0.0 0.00 0.00 0.00 82 1062.3
20260902204033 63 202 0.0 0.0 0.00 0.00 0.00 82 1062.3
20260902203922 63 157 0.0 0.0 0.00 0.00 0.00 82 1062.3
20260902203815 63 225 3.0 0.0 0.00 0.00 0.00 82 1062.4
20260902203701 63 202 0.0 0.0 0.00 0.00 0.00 82 1062.4
20260902203541 63 225 0.0 0.0 0.00 0.00 0.00 82 1062.3
20260902203435 63 202 0.0 0.0 0.00 0.00 0.00 82 1062.5
20260902203314 63 202 0.0 0.0 0.00 0.00 0.00 82 1062.4
20260902203153 63 202 0.0 0.0 0.00 0.00 0.00 82 1062.4
20260902203048 63 180 0.0 0.0 0.00 0.00 0.00 82 1062.4
20260902202918 63 247 0.0 0.0 0.00 0.00 0.00 82 1062.4
20260902202807 63 180 3.0 0.0 0.00 0.00 0.00 82 1062.5
20260902202701 63 180 0.0 0.0 0.00 0.00 0.00 82 1062.4
20260902202555 63 247 0.0 0.0 0.00 0.00 0.00 82 1062.4
20260902202434 63 247 0.0 0.0 0.00 0.00 0.00 82 1062.4
20260902202313 63 270 0.0 0.0 0.00 0.00 0.00 82 1062.5
20260902202152 63 225 0.0 0.0 0.00 0.00 0.00 82 1062.5
20260902202030 63 225 0.0 0.0 0.00 0.00 0.00 82 1062.5
20260902201909 63 225 0.0 0.0 0.00 0.00 0.00 82 1062.5
20260902201748 63 225 0.0 0.0 0.00 0.00 0.00 82 1062.6
20260902201627 63 225 0.0 0.0 0.00 0.00 0.00 82 1062.5
20260902201516 63 247 0.0 0.0 0.00 0.00 0.00 82 1062.5
20260902201408 63 202 2.0 0.0 0.00 0.00 0.00 82 1062.5
20260902201256 63 247 0.0 0.0 0.00 0.00 0.00 82 1062.6
20260902201136 63 270 0.0 0.0 0.00 0.00 0.00 82 1062.5
20260902201032 63 202 0.0 0.0 0.00 0.00 0.00 82 1062.6
20260902200925 63 247 0.0 0.0 0.00 0.00 0.00 82 1062.5
20260902200819 63 247 2.0 0.0 0.00 0.00 0.00 82 1062.5
20260902200658 63 247 0.0 0.0 0.00 0.00 0.00 82 1062.6
20260902200536 63 225 0.0 0.0 0.00 0.00 0.00 82 1062.6
20260902200416 63 247 4.0 0.0 0.00 0.00 0.00 82 1062.6
20260902200309 63 247 2.0 0.0 0.00 0.00 0.00 82 1062.6
20260902200133 63 225 2.0 0.0 0.00 0.00 0.00 82 1062.7
20260902200012 63 225 0.0 0.0 0.00 0.00 0.00 82 1062.6
20260902195842 63 247 0.0 0.0 0.00 0.00 0.00 82 1062.6
20260902195722 63 292 5.0 0.0 0.00 0.00 0.00 82 1062.7
20260902195616 63 225 2.0 0.0 0.00 0.00 0.00 82 1062.6
20260902195358 63 202 4.0 0.0 0.00 0.00 0.00 82 1062.7
20260902195245 63 270 0.0 0.0 0.00 0.00 0.00 82 1062.6
20260902195124 63 247 0.0 0.0 0.00 0.00 0.00 82 1062.7
20260902195013 63 270 0.0 0.0 0.00 0.00 0.00 82 1062.6
20260902194905 63 225 9.0 0.0 0.00 0.00 0.00 82 1062.7
20260902194746 63 247 0.0 0.0 0.00 0.00 0.00 82 1062.6
20260902194639 63 270 0.0 0.0 0.00 0.00 0.00 82 1062.6
20260902194518 63 225 1.0 0.0 0.00 0.00 0.00 82 1062.6
20260902194404 63 270 0.0 0.0 0.00 0.00 0.00 82 1062.6
20260902194252 63 270 2.0 0.0 0.00 0.00 0.00 82 1062.6
20260902194138 63 270 4.0 0.0 0.00 0.00 0.00 82 1062.6
20260902194019 63 270 4.0 0.0 0.00 0.00 0.00 82 1062.5
20260902193912 63 270 3.0 0.0 0.00 0.00 0.00 82 1062.6
20260902193754 63 225 3.0 0.0 0.00 0.00 0.00 82 1062.6
20260902193648 63 247 3.0 0.0 0.00 0.00 0.00 82 1062.6
20260902193541 63 225 0.0 0.0 0.00 0.00 0.00 82 1062.6
20260902193420 63 247 0.0 0.0 0.00 0.00 0.00 82 1062.6
20260902193300 64 247 0.0 0.0 0.00 0.00 0.00 82 1062.5
20260902193154 64 315 3.0 0.0 0.00 0.00 0.00 82 1062.6
20260902193043 64 270 4.0 0.0 0.00 0.00 0.00 82 1062.5
20260902192935 64 270 0.0 0.0 0.00 0.00 0.00 83 1062.7
20260902192806 64 270 0.0 0.0 0.00 0.00 0.00 83 1062.6
20260902192654 64 247 3.0 0.0 0.00 0.00 0.00 83 1062.6
20260902192548 64 270 0.0 0.0 0.00 0.00 0.00 83 1062.6
20260902192426 64 247 0.0 0.0 0.00 0.00 0.00 83 1062.7
20260902192307 64 247 0.0 0.0 0.00 0.00 0.00 83 1062.7
20260902192136 64 247 0.0 0.0 0.00 0.00 0.00 83 1062.7
20260902192023 64 247 0.0 0.0 0.00 0.00 0.00 83 1062.7
20260902191910 64 292 5.0 0.0 0.00 0.00 0.00 83 1062.7
20260902191748 64 225 2.0 0.0 0.00 0.00 0.00 83 1062.6
20260902191637 64 270 5.0 0.0 0.00 0.00 0.00 83 1062.6
20260902191530 64 225 0.0 0.0 0.00 0.00 0.00 83 1062.7
20260902191401 64 270 5.0 0.0 0.00 0.00 0.00 83 1062.7
20260902191242 64 270 4.0 0.0 0.00 0.00 0.00 83 1062.7
20260902191137 64 270 2.0 0.0 0.00 0.00 0.00 83 1062.7
20260902191032 64 270 4.0 0.0 0.00 0.00 0.00 83 1062.6
20260902190925 64 270 0.0 0.0 0.00 0.00 0.00 83 1062.7
20260902190820 64 247 0.0 0.0 0.00 0.00 0.00 83 1062.7
20260902190707 64 247 4.0 0.0 0.00 0.00 0.00 83 1062.7
20260902190556 64 247 0.0 0.0 0.00 0.00 0.00 83 1062.7
20260902190449 64 202 0.0 0.0 0.00 0.00 0.00 83 1062.7
20260902190326 65 270 3.0 0.0 0.00 0.00 0.00 83 1062.7
20260902190206 65 247 4.0 0.0 0.00 0.00 0.00 83 1062.7
20260902190053 65 247 6.0 0.0 0.00 0.00 0.00 83 1062.8
20260902185941 65 270 5.0 0.0 0.00 0.00 0.00 83 1062.8
20260902185837 65 270 4.0 0.0 0.00 0.00 0.00 83 1062.7
20260902185724 65 315 7.0 0.0 0.00 0.00 0.00 83 1062.8
20260902185616 65 270 4.0 0.0 0.00 0.00 0.00 83 1062.8
20260902185455 65 270 2.0 0.0 0.00 0.00 0.00 83 1062.8
20260902185336 65 270 6.0 0.0 0.00 0.00 0.00 83 1062.8
20260902185231 65 270 5.0 0.0 0.00 0.00 0.00 83 1062.8
20260902185117 65 270 5.0 0.0 0.00 0.00 0.00 83 1062.8
20260902185003 65 270 6.0 0.0 0.00 0.00 0.00 83 1062.8
20260902184842 65 270 0.0 0.0 0.00 0.00 0.00 83 1062.8
20260902184737 65 247 5.0 0.0 0.00 0.00 0.00 83 1062.7
20260902184623 65 270 5.0 0.0 0.00 0.00 0.00 83 1062.8
20260902184502 65 270 0.0 0.0 0.00 0.00 0.00 83 1062.7
20260902184342 65 247 5.0 0.0 0.00 0.00 0.00 83 1062.8
20260902184227 65 270 5.0 0.0 0.00 0.00 0.00 83 1062.7
20260902184109 65 292 3.0 0.0 0.00 0.00 0.00 83 1062.7
20260902184004 65 270 0.0 0.0 0.00 0.00 0.00 83 1062.8
20260902183858 65 292 4.0 0.0 0.00 0.00 0.00 83 1062.8
20260902183754 65 247 4.0 0.0 0.00 0.00 0.00 83 1062.8
20260902183638 65 270 2.0 0.0 0.00 0.00 0.00 83 1062.8
20260902183527 65 292 0.0 0.0 0.00 0.00 0.00 83 1062.8
20260902183420 65 315 6.0 0.0 0.00 0.00 0.00 83 1062.8
20260902183301 65 292 6.0 0.0 0.00 0.00 0.00 83 1062.8
20260902183146 65 292 6.0 0.0 0.00 0.00 0.00 83 1062.9
20260902183033 65 270 2.0 0.0 0.00 0.00 0.00 83 1063.0
20260902182912 65 270 0.0 0.0 0.00 0.00 0.00 83 1062.8
20260902182751 65 270 0.0 0.0 0.00 0.00 0.00 83 1062.8
20260902182646 65 292 5.0 0.0 0.00 0.00 0.00 83 1062.7
20260902182540 65 292 2.0 0.0 0.00 0.00 0.00 82 1062.7
20260902182427 65 270 2.0 0.0 0.00 0.00 0.00 82 1062.6
20260902182258 65 270 0.0 0.0 0.00 0.00 0.00 82 1062.6
20260902182141 65 270 0.0 0.0 0.00 0.00 0.00 82 1062.6
20260902182034 65 292 3.0 0.0 0.00 0.00 0.00 82 1062.5
20260902181919 65 270 2.0 0.0 0.00 0.00 0.00 81 1062.6
20260902181805 65 270 0.0 0.0 0.00 0.00 0.00 81 1062.5
20260902181637 65 315 3.0 0.0 0.00 0.00 0.00 81 1062.6
20260902181523 65 225 0.0 0.0 0.00 0.00 0.00 81 1062.6
20260902181402 65 270 0.0 0.0 0.00 0.00 0.00 81 1062.6
20260902181240 65 270 0.0 0.0 0.00 0.00 0.00 81 1062.6
20260902181119 65 270 0.0 0.0 0.00 0.00 0.00 81 1062.6
20260902181000 65 270 1.0 0.0 0.00 0.00 0.00 81 1062.5
20260902180854 65 270 5.0 0.0 0.00 0.00 0.00 80 1062.5
20260902180748 65 270 0.0 0.0 0.00 0.00 0.00 80 1062.4
20260902180634 65 270 8.0 0.0 0.00 0.00 0.00 80 1062.5
20260902180514 65 270 4.0 0.0 0.00 0.00 0.00 80 1062.5
20260902180359 65 270 3.0 0.0 0.00 0.00 0.00 79 1062.5
20260902180246 66 270 5.0 0.0 0.00 0.00 0.00 79 1062.5
20260902180132 66 270 0.0 0.0 0.00 0.00 0.00 79 1062.5
20260902180018 66 315 6.0 0.0 0.00 0.00 0.00 79 1062.5
20260902175904 66 292 4.0 0.0 0.00 0.00 0.00 79 1062.5
20260902175744 66 315 7.0 0.0 0.00 0.00 0.00 78 1062.5
20260902175630 66 270 7.0 0.0 0.00 0.00 0.00 78 1062.5
20260902175517 66 292 0.0 0.0 0.00 0.00 0.00 78 1062.5
20260902175403 66 270 3.0 0.0 0.00 0.00 0.00 78 1062.5
20260902175234 66 292 4.0 0.0 0.00 0.00 0.00 78 1062.5
20260902175113 66 292 4.0 0.0 0.00 0.00 0.00 77 1062.5
20260902174944 66 315 6.0 0.0 0.00 0.00 0.00 77 1062.5
20260902174830 66 247 4.0 0.0 0.00 0.00 0.00 76 1062.6
20260902174701 66 292 0.0 0.0 0.00 0.00 0.00 76 1062.6
20260902174549 66 315 7.0 0.0 0.00 0.00 0.00 76 1062.6
20260902174435 66 270 5.0 0.0 0.00 0.00 0.00 75 1062.6
20260902174322 66 292 10.0 0.0 0.00 0.00 0.00 75 1062.6
20260902174209 66 315 5.0 0.0 0.00 0.00 0.00 74 1062.7
20260902174104 66 292 5.0 0.0 0.00 0.00 0.00 75 1062.7
20260902173952 66 247 4.0 0.0 0.00 0.00 0.00 74 1062.6
20260902173846 66 247 6.0 0.0 0.00 0.00 0.00 74 1062.7
20260902173716 66 270 11.0 0.0 0.00 0.00 0.00 74 1062.7
20260902173604 66 292 4.0 0.0 0.00 0.00 0.00 74 1062.7
20260902173458 66 270 4.0 0.0 0.00 0.00 0.00 74 1062.7
20260902173329 66 315 3.0 0.0 0.00 0.00 0.00 74 1062.6
20260902173217 66 247 8.0 0.0 0.00 0.00 0.00 74 1062.6
20260902173110 66 270 4.0 0.0 0.00 0.00 0.00 74 1062.6
20260902172949 66 292 8.0 0.0 0.00 0.00 0.00 74 1062.6
20260902172829 67 225 5.0 0.0 0.00 0.00 0.00 73 1062.6
20260902172716 66 315 6.0 0.0 0.00 0.00 0.00 73 1062.6
20260902172552 66 247 9.0 0.0 0.00 0.00 0.00 73 1062.6
20260902172433 67 270 7.0 0.0 0.00 0.00 0.00 73 1062.6
20260902172325 67 292 11.0 0.0 0.00 0.00 0.00 73 1062.6
20260902172211 67 315 4.0 0.0 0.00 0.00 0.00 73 1062.6
20260902172105 67 292 3.0 0.0 0.00 0.00 0.00 73 1062.6
20260902171952 67 315 5.0 0.0 0.00 0.00 0.00 73 1062.6
20260902171848 67 270 5.0 0.0 0.00 0.00 0.00 73 1062.6
20260902171733 67 247 9.0 0.0 0.00 0.00 0.00 73 1062.6
20260902171627 67 270 7.0 0.0 0.00 0.00 0.00 73 1062.6
20260902171522 67 292 5.0 0.0 0.00 0.00 0.00 73 1062.6
20260902171415 67 315 9.0 0.0 0.00 0.00 0.00 73 1062.6
20260902171301 67 247 3.0 0.0 0.00 0.00 0.00 73 1062.6
20260902171148 67 292 9.0 0.0 0.00 0.00 0.00 73 1062.6
20260902171034 67 292 7.0 0.0 0.00 0.00 0.00 73 1062.6
20260902170915 67 315 4.0 0.0 0.00 0.00 0.00 72 1062.5
20260902170808 67 315 6.0 0.0 0.00 0.00 0.00 72 1062.5
20260902170648 67 292 6.0 0.0 0.00 0.00 0.00 72 1062.6
20260902170542 67 337 7.0 0.0 0.00 0.00 0.00 72 1062.6
20260902170421 67 315 7.0 0.0 0.00 0.00 0.00 72 1062.6
20260902170259 67 247 11.0 0.0 0.00 0.00 0.00 71 1062.6
20260902170146 67 270 0.0 0.0 0.00 0.00 0.00 71 1062.7
20260902170036 67 292 7.0 0.0 0.00 0.00 0.00 71 1062.7
20260902165928 67 315 5.0 0.0 0.00 0.00 0.00 72 1062.7
20260902165815 67 270 6.0 0.0 0.00 0.00 0.00 73 1062.6
20260902165700 67 315 6.0 0.0 0.00 0.00 0.00 74 1062.6
20260902165541 67 270 6.0 0.0 0.00 0.00 0.00 74 1062.6
20260902165436 67 315 4.0 0.0 0.00 0.00 0.00 74 1062.6
20260902165331 68 292 5.0 0.0 0.00 0.00 0.00 74 1062.6
20260902165225 68 270 4.0 0.0 0.00 0.00 0.00 74 1062.7
20260902165111 68 292 8.0 0.0 0.00 0.00 0.00 74 1062.7
20260902165000 68 247 5.0 0.0 0.00 0.00 0.00 74 1062.6
20260902164854 68 292 5.0 0.0 0.00 0.00 0.00 74 1062.7
20260902164742 68 292 3.0 0.0 0.00 0.00 0.00 73 1062.6
20260902164635 68 270 6.0 0.0 0.00 0.00 0.00 73 1062.7
20260902164523 68 247 6.0 0.0 0.00 0.00 0.00 73 1062.7
20260902164407 69 247 3.0 0.0 0.00 0.00 0.00 73 1062.7
20260902164254 69 247 6.0 0.0 0.00 0.00 0.00 73 1062.7
20260902164141 69 292 3.0 0.0 0.00 0.00 0.00 73 1062.7
20260902164037 69 315 5.0 0.0 0.00 0.00 0.00 72 1062.7
20260902163931 69 292 7.0 0.0 0.00 0.00 0.00 72 1062.8
20260902163816 69 292 0.0 0.0 0.00 0.00 0.00 71 1062.7
20260902163706 70 292 4.0 0.0 0.00 0.00 0.00 71 1062.7
20260902163559 70 292 4.0 0.0 0.00 0.00 0.00 71 1062.8
20260902163447 70 247 7.0 0.0 0.00 0.00 0.00 71 1062.8
20260902163342 70 270 4.0 0.0 0.00 0.00 0.00 71 1062.8
20260902163235 70 292 6.0 0.0 0.00 0.00 0.00 71 1062.8
20260902163122 71 292 6.0 0.0 0.00 0.00 0.00 71 1062.8
20260902163000 71 337 6.0 0.0 0.00 0.00 0.00 71 1062.8
20260902162841 71 292 5.0 0.0 0.00 0.00 0.00 70 1062.8
20260902162725 71 315 4.0 0.0 0.00 0.00 0.00 70 1062.8
20260902162612 71 292 3.0 0.0 0.00 0.00 0.00 70 1062.8
20260902162452 71 292 8.0 0.0 0.00 0.00 0.00 69 1062.8
20260902162339 71 292 5.0 0.0 0.00 0.00 0.00 69 1062.8
20260902162225 71 315 4.0 0.0 0.00 0.00 0.00 69 1062.8
20260902162114 71 315 6.0 0.0 0.00 0.00 0.00 69 1062.7
20260902161959 71 315 0.0 0.0 0.00 0.00 0.00 69 1062.8
20260902161845 71 247 6.0 0.0 0.00 0.00 0.00 68 1062.7
20260902161734 72 270 3.0 0.0 0.00 0.00 0.00 68 1062.8
20260902161620 72 292 3.0 0.0 0.00 0.00 0.00 69 1062.7
20260902161507 72 292 10.0 0.0 0.00 0.00 0.00 69 1062.8
20260902161347 72 292 6.0 0.0 0.00 0.00 0.00 69 1062.7
20260902161241 72 292 0.0 0.0 0.00 0.00 0.00 69 1062.8
20260902161135 72 270 4.0 0.0 0.00 0.00 0.00 69 1062.7
20260902161015 72 270 6.0 0.0 0.00 0.00 0.00 69 1062.8
20260902160902 71 270 0.0 0.0 0.00 0.00 0.00 70 1062.8
20260902160740 71 270 4.0 0.0 0.00 0.00 0.00 69 1062.9
20260902160630 71 270 6.0 0.0 0.00 0.00 0.00 69 1062.8
20260902160514 72 270 3.0 0.0 0.00 0.00 0.00 69 1062.7
20260902160353 72 292 6.0 0.0 0.00 0.00 0.00 68 1062.8
20260902160242 72 292 5.0 0.0 0.00 0.00 0.00 68 1062.7
20260902160137 72 292 9.0 0.0 0.00 0.00 0.00 68 1062.7
20260902160032 72 315 6.0 0.0 0.00 0.00 0.00 68 1062.8
20260902155925 73 247 7.0 0.0 0.00 0.00 0.00 68 1062.7
20260902155805 73 270 0.0 0.0 0.00 0.00 0.00 67 1062.8
20260902155654 73 270 0.0 0.0 0.00 0.00 0.00 67 1062.8
20260902155548 73 292 6.0 0.0 0.00 0.00 0.00 67 1062.7
20260902155442 73 270 5.0 0.0 0.00 0.00 0.00 67 1062.8
20260902155323 73 270 0.0 0.0 0.00 0.00 0.00 66 1062.8
20260902155216 73 292 6.0 0.0 0.00 0.00 0.00 66 1062.8
20260902155103 74 270 5.0 0.0 0.00 0.00 0.00 65 1062.8
20260902154958 74 292 5.0 0.0 0.00 0.00 0.00 65 1062.8
20260902154845 74 315 3.0 0.0 0.00 0.00 0.00 65 1062.8
20260902154733 74 292 7.0 0.0 0.00 0.00 0.00 64 1062.8
20260902154618 75 292 7.0 0.0 0.00 0.00 0.00 63 1062.8
20260902154506 75 292 5.0 0.0 0.00 0.00 0.00 63 1062.9
20260902154400 75 292 6.0 0.0 0.00 0.00 0.00 63 1062.8
20260902154239 75 315 4.0 0.0 0.00 0.00 0.00 63 1062.8
20260902154109 75 292 6.0 0.0 0.00 0.00 0.00 63 1062.7
20260902153956 75 337 0.0 0.0 0.00 0.00 0.00 62 1062.8
20260902153844 75 270 5.0 0.0 0.00 0.00 0.00 62 1062.7
20260902153722 76 315 3.0 0.0 0.00 0.00 0.00 62 1062.8
20260902153611 76 270 4.0 0.0 0.00 0.00 0.00 62 1062.7
20260902153456 76 270 9.0 0.0 0.00 0.00 0.00 62 1062.8
20260902153343 76 270 4.0 0.0 0.00 0.00 0.00 62 1062.8
20260902153238 76 270 7.0 0.0 0.00 0.00 0.00 63 1062.8
20260902153116 76 292 0.0 0.0 0.00 0.00 0.00 63 1062.8
20260902152956 76 270 4.0 0.0 0.00 0.00 0.00 62 1062.8
20260902152850 76 292 5.0 0.0 0.00 0.00 0.00 63 1062.9
20260902152729 76 315 0.0 0.0 0.00 0.00 0.00 63 1063.0
20260902152607 76 292 3.0 0.0 0.00 0.00 0.00 63 1062.9
20260902152448 76 315 9.0 0.0 0.00 0.00 0.00 63 1063.0
20260902152343 76 270 5.0 0.0 0.00 0.00 0.00 64 1063.0
20260902152228 76 270 5.0 0.0 0.00 0.00 0.00 64 1063.0
20260902152117 76 292 0.0 0.0 0.00 0.00 0.00 64 1062.9
20260902152011 76 0 5.0 0.0 0.00 0.00 0.00 64 1063.0
20260902151906 76 292 6.0 0.0 0.00 0.00 0.00 64 1063.0
20260902151800 76 315 4.0 0.0 0.00 0.00 0.00 65 1063.0
20260902151639 76 270 3.0 0.0 0.00 0.00 0.00 64 1062.9
20260902151517 76 270 4.0 0.0 0.00 0.00 0.00 65 1063.0
20260902151407 76 315 3.0 0.0 0.00 0.00 0.00 65 1063.0
20260902151300 76 270 7.0 0.0 0.00 0.00 0.00 66 1063.0
20260902151147 75 315 4.0 0.0 0.00 0.00 0.00 66 1063.0
20260902151033 75 292 3.0 0.0 0.00 0.00 0.00 66 1063.1
20260902150921 75 270 3.0 0.0 0.00 0.00 0.00 66 1063.1
20260902150815 75 315 3.0 0.0 0.00 0.00 0.00 66 1063.1
20260902150705 75 247 0.0 0.0 0.00 0.00 0.00 67 1063.0
20260902150557 75 292 8.0 0.0 0.00 0.00 0.00 68 1063.0
20260902150437 74 270 6.0 0.0 0.00 0.00 0.00 69 1062.9
20260902150334 73 270 0.0 0.0 0.00 0.00 0.00 71 1063.0
20260902150219 73 247 0.0 0.0 0.00 0.00 0.00 71 1063.0
20260902150104 73 337 0.0 0.0 0.00 0.00 0.00 71 1063.0
20260902145954 72 270 5.0 0.0 0.00 0.00 0.00 72 1063.0
20260902145849 72 292 0.0 0.0 0.00 0.00 0.00 72 1063.0
20260902145736 72 270 5.0 0.0 0.00 0.00 0.00 72 1063.0
20260902145629 71 270 4.0 0.0 0.00 0.00 0.00 71 1063.1
20260902145524 72 315 7.0 0.0 0.00 0.00 0.00 71 1063.0
20260902145404 72 292 4.0 0.0 0.00 0.00 0.00 71 1063.1
20260902145258 72 270 3.0 0.0 0.00 0.00 0.00 71 1063.1
20260902145145 72 292 4.0 0.0 0.00 0.00 0.00 71 1063.1
20260902145033 72 315 5.0 0.0 0.00 0.00 0.00 71 1063.1
20260902144918 72 270 4.0 0.0 0.00 0.00 0.00 70 1063.1
20260902144757 72 270 5.0 0.0 0.00 0.00 0.00 70 1063.1
20260902144644 72 315 7.0 0.0 0.00 0.00 0.00 69 1063.1
20260902144531 72 292 6.0 0.0 0.00 0.00 0.00 69 1063.1
20260902144409 73 247 8.0 0.0 0.00 0.00 0.00 69 1063.1
20260902144257 73 292 7.0 0.0 0.00 0.00 0.00 68 1063.2
20260902144143 73 270 6.0 0.0 0.00 0.00 0.00 68 1063.1
20260902144016 73 270 5.0 0.0 0.00 0.00 0.00 67 1063.1
20260902143909 74 292 5.0 0.0 0.00 0.00 0.00 67 1063.1
20260902143755 74 270 6.0 0.0 0.00 0.00 0.00 67 1063.1
20260902143634 74 315 4.0 0.0 0.00 0.00 0.00 67 1063.1
20260902143514 74 337 5.0 0.0 0.00 0.00 0.00 68 1063.0
20260902143407 74 292 8.0 0.0 0.00 0.00 0.00 68 1063.1
20260902143247 74 270 6.0 0.0 0.00 0.00 0.00 69 1063.0
20260902143117 73 292 6.0 0.0 0.00 0.00 0.00 69 1063.0
20260902142956 73 315 6.0 0.0 0.00 0.00 0.00 69 1063.0
20260902142843 73 270 7.0 0.0 0.00 0.00 0.00 69 1063.1
20260902142723 73 247 5.0 0.0 0.00 0.00 0.00 69 1063.1
20260902142616 72 270 3.0 0.0 0.00 0.00 0.00 71 1062.9
20260902142456 72 292 6.0 0.0 0.00 0.00 0.00 71 1063.0
20260902142351 72 315 9.0 0.0 0.00 0.00 0.00 72 1063.0
20260902142247 72 270 4.0 0.0 0.00 0.00 0.00 72 1063.0
20260902142141 72 292 8.0 0.0 0.00 0.00 0.00 72 1063.0
20260902142036 72 292 4.0 0.0 0.00 0.00 0.00 72 1063.0
20260902141923 72 247 6.0 0.0 0.00 0.00 0.00 72 1062.9
20260902141817 72 270 2.0 0.0 0.00 0.00 0.00 73 1062.9
20260902141705 72 292 2.0 0.0 0.00 0.00 0.00 73 1062.9
20260902141552 72 270 3.0 0.0 0.00 0.00 0.00 72 1062.9
20260902141438 72 270 4.0 0.0 0.00 0.00 0.00 72 1062.8
20260902141319 72 247 5.0 0.0 0.00 0.00 0.00 72 1062.9
20260902141212 72 292 0.0 0.0 0.00 0.00 0.00 71 1062.8
20260902141101 72 270 5.0 0.0 0.00 0.00 0.00 71 1062.9
20260902140954 73 315 2.0 0.0 0.00 0.00 0.00 70 1062.8
20260902140831 73 292 4.0 0.0 0.00 0.00 0.00 71 1062.8
20260902140713 73 270 0.0 0.0 0.00 0.00 0.00 70 1062.8
20260902140558 73 270 9.0 0.0 0.00 0.00 0.00 70 1062.8
20260902140436 73 270 6.0 0.0 0.00 0.00 0.00 70 1062.8
20260902140315 73 270 6.0 0.0 0.00 0.00 0.00 70 1062.9
20260902140146 73 315 4.0 0.0 0.00 0.00 0.00 70 1062.9
20260902140025 73 225 6.0 0.0 0.00 0.00 0.00 69 1062.8
20260902135903 73 292 4.0 0.0 0.00 0.00 0.00 69 1062.9
20260902135751 74 292 6.0 0.0 0.00 0.00 0.00 69 1062.8
20260902135630 73 337 5.0 0.0 0.00 0.00 0.00 69 1062.9
20260902135516 74 247 5.0 0.0 0.00 0.00 0.00 69 1062.8
20260902135404 74 270 0.0 0.0 0.00 0.00 0.00 69 1062.8
20260902135258 74 247 6.0 0.0 0.00 0.00 0.00 69 1062.9
20260902135145 74 292 2.0 0.0 0.00 0.00 0.00 69 1062.8
20260902135033 74 292 3.0 0.0 0.00 0.00 0.00 69 1062.9
20260902134927 73 247 6.0 0.0 0.00 0.00 0.00 70 1062.9
20260902134806 73 270 0.0 0.0 0.00 0.00 0.00 70 1062.9
20260902134701 73 270 2.0 0.0 0.00 0.00 0.00 70 1062.9
20260902134548 73 292 2.0 0.0 0.00 0.00 0.00 70 1062.9
20260902134419 73 315 5.0 0.0 0.00 0.00 0.00 70 1062.9
20260902134314 73 270 2.0 0.0 0.00 0.00 0.00 70 1062.9
20260902134208 73 247 5.0 0.0 0.00 0.00 0.00 70 1062.9
20260902134047 73 292 6.0 0.0 0.00 0.00 0.00 69 1062.9
20260902133925 73 247 4.0 0.0 0.00 0.00 0.00 69 1063.0
20260902133804 73 270 4.0 0.0 0.00 0.00 0.00 69 1062.9
20260902133646 73 202 11.0 0.0 0.00 0.00 0.00 70 1062.9
20260902133538 73 202 6.0 0.0 0.00 0.00 0.00 70 1062.9
20260902133433 73 180 2.0 0.0 0.00 0.00 0.00 70 1063.0
20260902133320 73 292 6.0 0.0 0.00 0.00 0.00 70 1063.0
20260902133200 73 270 6.0 0.0 0.00 0.00 0.00 70 1062.9
20260902133053 73 247 5.0 0.0 0.00 0.00 0.00 71 1063.0
20260902132941 73 247 3.0 0.0 0.00 0.00 0.00 71 1063.0
20260902132828 72 247 4.0 0.0 0.00 0.00 0.00 72 1063.1
20260902132717 72 247 6.0 0.0 0.00 0.00 0.00 72 1063.0
20260902132611 72 292 0.0 0.0 0.00 0.00 0.00 71 1063.0
20260902132507 72 270 0.0 0.0 0.00 0.00 0.00 71 1063.0
20260902132359 72 270 4.0 0.0 0.00 0.00 0.00 71 1063.0
20260902132246 72 270 3.0 0.0 0.00 0.00 0.00 71 1063.0
20260902132134 72 247 5.0 0.0 0.00 0.00 0.00 71 1063.0
20260902132028 72 315 5.0 0.0 0.00 0.00 0.00 71 1063.0
20260902131915 72 270 4.0 0.0 0.00 0.00 0.00 71 1063.0
20260902131802 72 270 5.0 0.0 0.00 0.00 0.00 72 1063.0
20260902131650 72 180 0.0 0.0 0.00 0.00 0.00 72 1063.0
20260902131546 71 270 4.0 0.0 0.00 0.00 0.00 72 1063.0
20260902131439 71 247 4.0 0.0 0.00 0.00 0.00 72 1063.0
20260902131325 71 247 0.0 0.0 0.00 0.00 0.00 72 1063.0
20260902131213 71 247 2.0 0.0 0.00 0.00 0.00 72 1063.0
20260902131100 71 247 2.0 0.0 0.00 0.00 0.00 72 1063.0
20260902130939 71 180 0.0 0.0 0.00 0.00 0.00 72 1063.0
20260902130833 71 247 8.0 0.0 0.00 0.00 0.00 72 1063.0
20260902130727 71 247 4.0 0.0 0.00 0.00 0.00 72 1063.0
20260902130622 71 270 0.0 0.0 0.00 0.00 0.00 72 1063.0
20260902130516 71 270 3.0 0.0 0.00 0.00 0.00 72 1063.0
20260902130410 71 225 0.0 0.0 0.00 0.00 0.00 72 1062.9
20260902130305 71 247 4.0 0.0 0.00 0.00 0.00 72 1062.9
20260902130144 71 247 5.0 0.0 0.00 0.00 0.00 72 1062.9
20260902130023 71 247 2.0 0.0 0.00 0.00 0.00 71 1063.0
20260902125904 71 180 5.0 0.0 0.00 0.00 0.00 71 1062.9
20260902125758 71 247 0.0 0.0 0.00 0.00 0.00 70 1063.0
20260902125653 71 270 3.0 0.0 0.00 0.00 0.00 70 1063.0
20260902125546 71 225 2.0 0.0 0.00 0.00 0.00 70 1063.0
20260902125433 71 270 10.0 0.0 0.00 0.00 0.00 69 1063.0
20260902125321 71 202 5.0 0.0 0.00 0.00 0.00 68 1062.9
20260902125215 71 180 8.0 0.0 0.00 0.00 0.00 68 1062.9
20260902125111 71 270 0.0 0.0 0.00 0.00 0.00 68 1063.0
20260902125005 71 247 4.0 0.0 0.00 0.00 0.00 68 1062.9
20260902124853 71 180 6.0 0.0 0.00 0.00 0.00 68 1062.9
20260902124746 71 225 3.0 0.0 0.00 0.00 0.00 68 1063.0
20260902124634 71 247 3.0 0.0 0.00 0.00 0.00 68 1062.9
20260902124529 71 270 4.0 0.0 0.00 0.00 0.00 67 1063.0
20260902124408 71 270 0.0 0.0 0.00 0.00 0.00 67 1062.9
20260902124304 71 270 5.0 0.0 0.00 0.00 0.00 67 1063.0
20260902124157 71 247 6.0 0.0 0.00 0.00 0.00 67 1063.0
20260902124044 71 225 6.0 0.0 0.00 0.00 0.00 67 1063.0
20260902123934 71 247 5.0 0.0 0.00 0.00 0.00 67 1063.0
20260902123827 71 225 6.0 0.0 0.00 0.00 0.00 67 1063.0
20260902123659 71 225 3.0 0.0 0.00 0.00 0.00 67 1062.9
20260902123546 71 270 2.0 0.0 0.00 0.00 0.00 66 1062.9
20260902123425 71 270 10.0 0.0 0.00 0.00 0.00 66 1063.0
20260902123305 71 247 0.0 0.0 0.00 0.00 0.00 67 1062.9
20260902123201 71 270 0.0 0.0 0.00 0.00 0.00 67 1063.0
20260902123055 71 225 3.0 0.0 0.00 0.00 0.00 67 1062.9
20260902122942 71 247 3.0 0.0 0.00 0.00 0.00 68 1063.0
20260902122829 71 225 3.0 0.0 0.00 0.00 0.00 68 1063.0
20260902122715 70 180 6.0 0.0 0.00 0.00 0.00 68 1062.9
20260902122603 70 157 4.0 0.0 0.00 0.00 0.00 69 1063.0
20260902122452 70 202 3.0 0.0 0.00 0.00 0.00 69 1062.9
20260902122344 70 225 4.0 0.0 0.00 0.00 0.00 70 1062.9
20260902122232 69 247 5.0 0.0 0.00 0.00 0.00 71 1063.0
20260902122127 69 247 6.0 0.0 0.00 0.00 0.00 71 1063.0
20260902122014 69 247 0.0 0.0 0.00 0.00 0.00 71 1063.0
20260902121911 69 247 0.0 0.0 0.00 0.00 0.00 71 1063.0
20260902121805 69 270 4.0 0.0 0.00 0.00 0.00 72 1063.0
20260902121658 69 225 0.0 0.0 0.00 0.00 0.00 71 1063.0
20260902121553 69 202 2.0 0.0 0.00 0.00 0.00 71 1063.0
20260902121440 69 202 2.0 0.0 0.00 0.00 0.00 71 1063.0
20260902121335 69 202 3.0 0.0 0.00 0.00 0.00 71 1063.0
20260902121222 69 180 3.0 0.0 0.00 0.00 0.00 71 1063.0
20260902121108 69 202 4.0 0.0 0.00 0.00 0.00 71 1063.0
20260902120947 69 225 4.0 0.0 0.00 0.00 0.00 71 1063.0
20260902120827 69 225 4.0 0.0 0.00 0.00 0.00 72 1063.0
20260902120720 69 225 3.0 0.0 0.00 0.00 0.00 72 1062.9
20260902120606 69 202 0.0 0.0 0.00 0.00 0.00 72 1063.0
20260902120455 69 225 2.0 0.0 0.00 0.00 0.00 73 1062.9
20260902120347 68 225 4.0 0.0 0.00 0.00 0.00 73 1063.0
20260902120233 68 180 0.0 0.0 0.00 0.00 0.00 73 1062.9
20260902120119 68 180 2.0 0.0 0.00 0.00 0.00 73 1063.0
20260902120013 67 247 1.0 0.0 0.00 0.00 0.00 73 1063.0
20260902115859 67 270 4.0 0.0 0.00 0.00 0.00 73 1063.0
20260902115747 67 247 2.0 0.0 0.00 0.00 0.00 73 1063.0
20260902115632 67 270 3.0 0.0 0.00 0.00 0.00 73 1062.9
20260902115520 67 225 4.0 0.0 0.00 0.00 0.00 73 1062.9
20260902115406 67 270 1.0 0.0 0.00 0.00 0.00 73 1062.9
20260902115246 66 247 4.0 0.0 0.00 0.00 0.00 73 1062.9
20260902115141 66 225 3.0 0.0 0.00 0.00 0.00 73 1062.9
20260902115032 66 157 7.0 0.0 0.00 0.00 0.00 72 1063.0
20260902114918 67 247 0.0 0.0 0.00 0.00 0.00 72 1063.1
20260902114812 67 247 10.0 0.0 0.00 0.00 0.00 71 1063.1
20260902114702 67 270 2.0 0.0 0.00 0.00 0.00 71 1063.1
20260902114553 67 247 5.0 0.0 0.00 0.00 0.00 70 1063.1
20260902114441 67 270 3.0 0.0 0.00 0.00 0.00 70 1063.1
20260902114327 67 180 6.0 0.0 0.00 0.00 0.00 70 1063.1
20260902114214 68 270 6.0 0.0 0.00 0.00 0.00 70 1063.1
20260902114045 68 247 14.0 0.0 0.00 0.00 0.00 70 1063.1
20260902113932 68 270 8.0 0.0 0.00 0.00 0.00 69 1063.1
20260902113811 69 270 9.0 0.0 0.00 0.00 0.00 68 1063.1
20260902113649 69 270 13.0 0.0 0.00 0.00 0.00 67 1063.2
20260902113528 70 247 5.0 0.0 0.00 0.00 0.00 66 1063.1
20260902113407 70 292 14.0 0.0 0.00 0.00 0.00 67 1063.1
20260902113254 70 247 5.0 0.0 0.00 0.00 0.00 66 1063.1
20260902113137 71 270 14.0 0.0 0.00 0.00 0.00 66 1063.1
20260902113029 71 270 10.0 0.0 0.00 0.00 0.00 65 1063.2
20260902112913 71 270 2.0 0.0 0.00 0.00 0.00 64 1063.2
20260902112803 72 292 11.0 0.0 0.00 0.00 0.00 64 1063.2
20260902112655 72 315 6.0 0.0 0.00 0.00 0.00 63 1063.2
20260902112534 73 270 8.0 0.0 0.00 0.00 0.00 63 1063.2
20260902112421 73 270 7.0 0.0 0.00 0.00 0.00 63 1063.2
20260902112300 74 270 16.0 0.0 0.00 0.00 0.00 67 1063.2
20260902112140 74 292 9.0 0.0 0.00 0.00 0.00 67 1063.1
20260902112025 74 247 7.0 0.0 0.00 0.00 0.00 67 1063.2
20260902111856 74 270 7.0 0.0 0.00 0.00 0.00 67 1063.1
20260902111743 74 292 10.0 0.0 0.00 0.00 0.00 67 1063.1
20260902111614 73 270 3.0 0.0 0.00 0.00 0.00 67 1063.1
20260902111502 73 292 5.0 0.0 0.00 0.00 0.00 68 1063.2
20260902111350 73 247 0.0 0.0 0.00 0.00 0.00 68 1063.2
20260902111243 73 247 6.0 0.0 0.00 0.00 0.00 68 1063.1
20260902111122 73 247 8.0 0.0 0.00 0.00 0.00 69 1063.2
20260902111001 73 270 0.0 0.0 0.00 0.00 0.00 70 1063.2
20260902110848 73 270 4.0 0.0 0.00 0.00 0.00 69 1063.2
20260902110735 73 292 6.0 0.0 0.00 0.00 0.00 69 1063.2
20260902110630 73 270 4.0 0.0 0.00 0.00 0.00 69 1063.1
20260902110510 73 270 5.0 0.0 0.00 0.00 0.00 69 1063.2
20260902110406 73 270 0.0 0.0 0.00 0.00 0.00 68 1063.2
20260902110259 73 225 5.0 0.0 0.00 0.00 0.00 68 1063.2
20260902110153 73 315 8.0 0.0 0.00 0.00 0.00 68 1063.2
20260902110032 73 270 6.0 0.0 0.00 0.00 0.00 67 1063.1
20260902105910 74 270 11.0 0.0 0.00 0.00 0.00 67 1063.1
20260902105750 74 270 0.0 0.0 0.00 0.00 0.00 66 1063.1
20260902105638 74 270 4.0 0.0 0.00 0.00 0.00 66 1063.1
20260902105534 74 225 7.0 0.0 0.00 0.00 0.00 66 1063.1
20260902105426 74 292 12.0 0.0 0.00 0.00 0.00 65 1063.1
20260902105314 74 202 10.0 0.0 0.00 0.00 0.00 66 1063.1
20260902105200 74 247 4.0 0.0 0.00 0.00 0.00 66 1063.1
20260902105041 74 292 3.0 0.0 0.00 0.00 0.00 66 1063.1
20260902104933 74 292 0.0 0.0 0.00 0.00 0.00 66 1063.0
20260902104814 74 0 6.0 0.0 0.00 0.00 0.00 67 1063.1
20260902104708 73 292 0.0 0.0 0.00 0.00 0.00 66 1063.1
20260902104547 73 270 0.0 0.0 0.00 0.00 0.00 66 1063.1
20260902104426 73 270 4.0 0.0 0.00 0.00 0.00 66 1063.1
20260902104313 73 337 4.0 0.0 0.00 0.00 0.00 67 1063.1
20260902104151 73 225 4.0 0.0 0.00 0.00 0.00 67 1063.1
20260902104041 73 247 6.0 0.0 0.00 0.00 0.00 67 1063.1
20260902103914 73 202 5.0 0.0 0.00 0.00 0.00 67 1063.2
20260902103806 73 247 6.0 0.0 0.00 0.00 0.00 66 1063.2
20260902103645 73 270 7.0 0.0 0.00 0.00 0.00 67 1063.2
20260902103534 73 315 3.0 0.0 0.00 0.00 0.00 67 1063.1
20260902103418 73 247 6.0 0.0 0.00 0.00 0.00 67 1063.2
20260902103252 73 270 3.0 0.0 0.00 0.00 0.00 68 1063.2
20260902103133 73 292 9.0 0.0 0.00 0.00 0.00 68 1063.2
20260902103025 73 270 6.0 0.0 0.00 0.00 0.00 67 1063.2
20260902102905 72 292 5.0 0.0 0.00 0.00 0.00 67 1063.2
20260902102755 72 270 5.0 0.0 0.00 0.00 0.00 67 1063.1
20260902102648 72 270 7.0 0.0 0.00 0.00 0.00 67 1063.1
20260902102541 72 270 8.0 0.0 0.00 0.00 0.00 68 1063.2
20260902102422 72 247 10.0 0.0 0.00 0.00 0.00 69 1063.2
20260902102317 72 270 0.0 0.0 0.00 0.00 0.00 69 1063.2
20260902102212 72 270 0.0 0.0 0.00 0.00 0.00 69 1063.1
20260902102107 72 292 5.0 0.0 0.00 0.00 0.00 69 1063.1
20260902102002 72 247 0.0 0.0 0.00 0.00 0.00 69 1063.2
20260902101857 72 270 0.0 0.0 0.00 0.00 0.00 68 1063.1
20260902101751 72 247 4.0 0.0 0.00 0.00 0.00 68 1063.1
20260902101632 72 292 5.0 0.0 0.00 0.00 0.00 68 1063.1
20260902101527 72 247 0.0 0.0 0.00 0.00 0.00 67 1063.1
20260902101423 72 292 5.0 0.0 0.00 0.00 0.00 67 1063.1
20260902101318 73 247 3.0 0.0 0.00 0.00 0.00 67 1063.1
20260902101212 73 225 10.0 0.0 0.00 0.00 0.00 67 1063.0
20260902101107 73 247 6.0 0.0 0.00 0.00 0.00 67 1063.1
20260902100932 73 247 3.0 0.0 0.00 0.00 0.00 66 1063.0
20260902100827 74 292 7.0 0.0 0.00 0.00 0.00 65 1063.0
20260902100719 74 225 7.0 0.0 0.00 0.00 0.00 65 1063.0
20260902100559 74 157 9.0 0.0 0.00 0.00 0.00 65 1063.0
20260902100456 74 270 0.0 0.0 0.00 0.00 0.00 65 1063.0
20260902100348 75 247 2.0 0.0 0.00 0.00 0.00 65 1063.0
20260902100219 75 270 0.0 0.0 0.00 0.00 0.00 64 1063.0
20260902100107 75 292 6.0 0.0 0.00 0.00 0.00 64 1063.0
20260902095955 75 202 0.0 0.0 0.00 0.02 0.00 64 1063.0
20260902095848 75 247 6.0 0.0 0.00 0.02 0.00 63 1063.0
20260902095726 75 180 6.0 0.0 0.00 0.02 0.00 63 1063.0
20260902095613 76 225 6.0 0.0 0.00 0.02 0.00 62 1063.0
20260902095503 76 225 13.0 0.0 0.00 0.02 0.00 62 1063.0
20260902095355 77 225 6.0 0.0 0.00 0.02 0.00 62 1062.9
20260902095234 77 247 11.0 0.0 0.00 0.02 0.00 61 1063.0
20260902095123 77 292 6.0 0.0 0.00 0.02 0.00 60 1063.0
20260902095016 78 247 4.0 0.0 0.00 0.02 0.00 59 1062.9
20260902094855 78 270 4.0 0.0 0.00 0.02 0.00 58 1063.0
20260902094742 79 247 4.0 0.0 0.00 0.02 0.00 57 1062.9
20260902094629 79 225 4.0 0.0 0.00 0.02 0.00 57 1062.9
20260902094524 80 292 7.0 0.0 0.00 0.02 0.00 56 1062.9
20260902094412 80 225 0.0 0.0 0.00 0.02 0.00 56 1062.9
20260902094306 80 247 6.0 0.0 0.00 0.02 0.00 56 1062.9
20260902094154 81 292 6.0 0.0 0.00 0.02 0.00 55 1062.9
20260902094049 81 247 4.0 0.0 0.00 0.02 0.00 56 1062.9
20260902093942 80 247 0.0 0.0 0.00 0.02 0.00 57 1062.9
20260902093820 80 247 4.0 0.0 0.00 0.02 0.00 57 1062.8
20260902093652 80 225 3.0 0.0 0.00 0.02 0.00 56 1062.8
20260902093530 80 247 6.0 0.0 0.00 0.02 0.00 56 1062.9
20260902093409 81 157 5.0 0.0 0.00 0.02 0.00 56 1062.9
20260902093257 80 247 7.0 0.0 0.00 0.02 0.00 56 1062.9
20260902093152 80 270 7.0 0.0 0.00 0.02 0.00 56 1062.9
20260902093030 80 225 0.0 0.0 0.00 0.02 0.00 56 1062.9
20260902092917 80 247 5.0 0.0 0.00 0.02 0.00 57 1062.9
20260902092755 80 270 7.0 0.0 0.00 0.02 0.00 57 1062.8
20260902092635 80 180 9.0 0.0 0.00 0.02 0.00 58 1062.9
20260902092522 80 225 3.0 0.0 0.00 0.02 0.00 59 1062.9
20260902092415 79 270 0.0 0.0 0.00 0.02 0.00 59 1062.9
20260902092305 79 270 4.0 0.0 0.00 0.02 0.00 59 1062.9
20260902092150 79 270 6.0 0.0 0.00 0.02 0.00 58 1062.9
20260902092039 79 225 5.0 0.0 0.00 0.02 0.00 58 1062.9
20260902091934 79 225 6.0 0.0 0.00 0.02 0.00 59 1062.9
20260902091819 79 225 6.0 0.0 0.00 0.02 0.00 59 1062.9
20260902091705 79 202 6.0 0.0 0.00 0.02 0.00 59 1062.9
20260902091545 79 247 4.0 0.0 0.00 0.02 0.00 59 1062.9
20260902091442 79 202 6.0 0.0 0.00 0.02 0.00 59 1062.9
20260902091334 79 270 6.0 0.0 0.00 0.02 0.00 61 1062.9
20260902091224 78 247 0.0 0.0 0.00 0.02 0.00 61 1062.9
20260902091117 78 180 4.0 0.0 0.00 0.02 0.00 60 1062.9
20260902091003 78 225 6.0 0.0 0.00 0.02 0.00 61 1062.9
20260902090843 78 247 6.0 0.0 0.00 0.02 0.00 61 1062.9
20260902090729 77 225 7.0 0.0 0.00 0.02 0.00 61 1062.9
20260902090602 78 225 5.0 0.0 0.00 0.02 0.00 61 1062.9
20260902090448 78 180 7.0 0.0 0.00 0.02 0.00 61 1062.8
20260902090342 78 202 4.0 0.0 0.00 0.02 0.00 60 1062.9
20260902090231 78 157 11.0 0.0 0.00 0.02 0.00 59 1062.9
20260902090117 78 225 6.0 0.0 0.00 0.02 0.00 60 1062.9
20260902090012 78 202 2.0 0.0 0.00 0.02 0.00 60 1062.9
20260902085859 78 292 5.0 0.0 0.00 0.08 0.00 59 1062.9
20260902085746 79 157 5.0 0.0 0.00 0.08 0.00 59 1062.9
20260902085641 79 247 3.0 0.0 0.00 0.08 0.00 59 1062.9
20260902085536 79 202 10.0 0.0 0.00 0.08 0.00 59 1062.9
20260902085431 79 270 7.0 0.0 0.00 0.08 0.00 59 1063.0
20260902085325 79 247 0.0 0.0 0.00 0.08 0.00 59 1062.9
20260902085220 79 247 6.0 0.0 0.00 0.08 0.00 59 1062.9
20260902085109 79 157 0.0 0.0 0.00 0.08 0.00 59 1062.9
20260902085001 78 292 0.0 0.0 0.00 0.08 0.00 59 1062.9
20260902084849 78 247 0.0 0.0 0.00 0.08 0.00 59 1062.9
20260902084735 78 225 0.0 0.0 0.00 0.08 0.00 59 1063.0
20260902084623 78 180 7.0 0.0 0.00 0.08 0.00 59 1062.9
20260902084510 78 180 5.0 0.0 0.00 0.08 0.00 58 1062.9
20260902084347 79 225 10.0 0.0 0.00 0.08 0.00 59 1062.9
20260902084235 78 270 0.0 0.0 0.00 0.08 0.00 59 1062.8
20260902084131 78 247 6.0 0.0 0.00 0.08 0.00 59 1062.8
20260902084017 78 247 6.0 0.0 0.00 0.08 0.00 59 1062.9
20260902083854 78 247 0.0 0.0 0.00 0.08 0.00 60 1062.9
20260902083742 78 270 4.0 0.0 0.00 0.08 0.00 60 1062.8
20260902083621 78 225 5.0 0.0 0.00 0.08 0.00 60 1062.8
20260902083508 78 225 2.0 0.0 0.00 0.08 0.00 60 1062.8
20260902083346 78 202 6.0 0.0 0.00 0.08 0.00 60 1062.8
20260902083236 78 292 5.0 0.0 0.00 0.08 0.00 60 1062.7
20260902083129 78 157 5.0 0.0 0.00 0.08 0.00 60 1062.8
20260902083000 78 270 5.0 0.0 0.00 0.08 0.00 60 1062.8
20260902082850 78 202 11.0 0.0 0.00 0.08 0.00 60 1062.7
20260902082744 77 180 4.0 0.0 0.00 0.08 0.00 60 1062.7
20260902082638 77 157 5.0 0.0 0.00 0.08 0.00 60 1062.6
20260902082526 77 180 5.0 0.0 0.00 0.08 0.00 61 1062.6
20260902082413 77 180 7.0 0.0 0.00 0.08 0.00 62 1062.6
20260902082254 76 292 5.0 0.0 0.00 0.08 0.00 62 1062.6
20260902082134 76 225 0.0 0.0 0.00 0.08 0.00 62 1062.6
20260902082017 76 202 0.0 0.0 0.00 0.08 0.00 62 1062.5
20260902081904 76 202 4.0 0.0 0.00 0.08 0.00 62 1062.6
20260902081751 75 270 2.0 0.0 0.00 0.08 0.00 63 1062.5
20260902081638 75 157 5.0 0.0 0.00 0.08 0.00 62 1062.5
20260902081532 75 270 3.0 0.0 0.00 0.08 0.00 62 1062.5
20260902081411 75 225 5.0 0.0 0.00 0.08 0.00 62 1062.5
20260902081258 75 202 9.0 0.0 0.00 0.08 0.00 62 1062.5
20260902081146 75 202 8.0 0.0 0.00 0.08 0.00 62 1062.4
20260902081032 75 270 0.0 0.0 0.00 0.08 0.00 62 1062.4
20260902080919 75 202 6.0 0.0 0.00 0.08 0.00 62 1062.5
20260902080806 75 157 3.0 0.0 0.00 0.08 0.00 63 1062.5
20260902080652 75 180 5.0 0.0 0.00 0.08 0.00 62 1062.5
20260902080540 75 180 5.0 0.0 0.00 0.08 0.00 62 1062.5
20260902080418 75 180 4.0 0.0 0.00 0.08 0.00 63 1062.5
20260902080306 75 180 6.0 0.0 0.00 0.08 0.00 64 1062.5
20260902080201 75 180 5.0 0.0 0.00 0.08 0.00 65 1062.5
20260902080056 74 202 0.0 0.0 0.00 0.08 0.00 65 1062.5
20260902075950 74 225 3.0 0.0 0.00 0.08 0.00 64 1062.4
20260902075831 74 247 4.0 0.0 0.00 0.08 0.00 64 1062.5
20260902075715 74 225 4.0 0.0 0.00 0.08 0.00 65 1062.5
20260902075554 73 180 2.0 0.0 0.00 0.08 0.00 65 1062.5
20260902075433 73 202 0.0 0.0 0.00 0.08 0.00 66 1062.4
20260902075312 73 270 5.0 0.0 0.00 0.08 0.00 65 1062.5
20260902075150 72 202 5.0 0.0 0.00 0.08 0.00 66 1062.5
20260902075038 72 180 6.0 0.0 0.00 0.08 0.00 66 1062.4
20260902074933 72 247 6.0 0.0 0.00 0.08 0.00 66 1062.5
20260902074828 72 270 7.0 0.0 0.00 0.08 0.00 66 1062.5
20260902074717 72 202 6.0 0.0 0.00 0.08 0.00 66 1062.5
20260902074611 72 180 8.0 0.0 0.00 0.08 0.00 66 1062.5
20260902074504 72 247 4.0 0.0 0.00 0.08 0.00 66 1062.5
20260902074350 72 202 6.0 0.0 0.00 0.08 0.00 66 1062.6
20260902074229 72 247 4.0 0.0 0.00 0.08 0.00 66 1062.5
20260902074118 72 202 6.0 0.0 0.00 0.08 0.00 66 1062.5
20260902074004 72 202 7.0 0.0 0.00 0.08 0.00 66 1062.6
20260902073850 72 202 8.0 0.0 0.00 0.08 0.00 67 1062.5
20260902073729 72 202 0.0 0.0 0.00 0.08 0.00 67 1062.5
20260902073617 71 225 3.0 0.0 0.00 0.08 0.00 67 1062.5
20260902073512 72 225 3.0 0.0 0.00 0.08 0.00 67 1062.5
20260902073350 71 180 2.0 0.0 0.00 0.08 0.00 67 1062.5
20260902073214 71 225 2.0 0.0 0.00 0.08 0.00 68 1062.5
20260902073056 71 202 9.0 0.0 0.00 0.08 0.00 68 1062.5
20260902072950 71 202 6.0 0.0 0.00 0.08 0.00 67 1062.5
20260902072845 71 180 8.0 0.0 0.00 0.08 0.00 68 1062.4
20260902072739 71 247 3.0 0.0 0.00 0.08 0.00 69 1062.5
20260902072617 70 202 6.0 0.0 0.00 0.08 0.00 69 1062.4
20260902072459 70 202 0.0 0.0 0.00 0.08 0.00 70 1062.5
20260902072351 69 202 5.0 0.0 0.00 0.08 0.00 71 1062.4
20260902072222 69 180 4.0 0.0 0.00 0.08 0.00 72 1062.5
20260902072103 68 180 5.0 0.0 0.00 0.08 0.00 72 1062.5
20260902071955 68 180 2.0 0.0 0.00 0.08 0.00 73 1062.5
20260902071841 68 180 6.0 0.0 0.00 0.08 0.00 73 1062.5
20260902071727 68 202 7.0 0.0 0.00 0.08 0.00 72 1062.6
20260902071605 68 247 2.0 0.0 0.00 0.08 0.00 73 1062.5
20260902071452 67 180 0.0 0.0 0.00 0.08 0.00 74 1062.5
20260902071346 67 180 4.0 0.0 0.00 0.08 0.00 74 1062.6
20260902071225 67 270 5.0 0.0 0.00 0.08 0.00 74 1062.5
20260902071103 67 225 11.0 0.0 0.00 0.08 0.00 75 1062.5
20260902070934 66 180 3.0 0.0 0.00 0.08 0.00 77 1062.5
20260902070813 66 180 0.0 0.0 0.00 0.08 0.00 78 1062.5
20260902070655 65 180 0.0 0.0 0.00 0.08 0.00 78 1062.6
20260902070547 65 180 8.0 0.0 0.00 0.08 0.00 79 1062.6
20260902070433 64 202 10.0 0.0 0.00 0.08 0.00 79 1062.5
20260902070327 64 202 6.0 0.0 0.00 0.08 0.00 80 1062.5
20260902070213 64 202 7.0 0.0 0.00 0.08 0.00 80 1062.5
20260902065957 63 157 2.0 0.0 0.00 0.10 0.00 80 1062.5
20260902065842 63 225 4.0 0.0 0.00 0.10 0.00 80 1062.5
20260902065729 63 180 5.0 0.0 0.00 0.10 0.00 80 1062.6
20260902065615 63 202 1.0 0.0 0.00 0.10 0.00 80 1062.6
20260902065455 63 180 11.0 0.0 0.00 0.10 0.00 80 1062.6
20260902065342 63 180 0.0 0.0 0.00 0.10 0.00 80 1062.6
20260902065237 63 202 6.0 0.0 0.00 0.10 0.00 80 1062.6
20260902065132 63 202 0.0 0.0 0.00 0.10 0.00 80 1062.5
20260902065027 63 202 4.0 0.0 0.00 0.10 0.00 80 1062.5
20260902064907 63 202 5.0 0.0 0.00 0.10 0.00 79 1062.6
20260902064800 63 225 5.0 0.0 0.00 0.10 0.00 79 1062.5
20260902064647 64 225 4.0 0.0 0.00 0.10 0.00 79 1062.5
20260902064533 64 202 3.0 0.0 0.00 0.10 0.00 79 1062.6
20260902064426 64 202 0.0 0.0 0.00 0.10 0.00 79 1062.5
20260902064305 64 180 4.0 0.0 0.00 0.10 0.00 79 1062.5
20260902064151 64 157 4.0 0.0 0.00 0.10 0.00 79 1062.6
20260902064037 64 202 4.0 0.0 0.00 0.10 0.00 79 1062.5
20260902063932 64 202 5.0 0.0 0.00 0.10 0.00 80 1062.5
20260902063819 64 247 4.0 0.0 0.00 0.10 0.00 80 1062.6
20260902063712 64 202 6.0 0.0 0.00 0.10 0.00 80 1062.6
20260902063600 64 225 1.0 0.0 0.00 0.10 0.00 80 1062.6
20260902063439 64 180 4.0 0.0 0.00 0.10 0.00 80 1062.6
20260902063318 64 180 3.0 0.0 0.00 0.10 0.00 81 1062.5
20260902063156 63 202 5.0 0.0 0.00 0.10 0.00 80 1062.6
20260902063037 63 202 9.0 0.0 0.00 0.10 0.00 81 1062.5
20260902062922 63 180 6.0 0.0 0.00 0.10 0.00 81 1062.6
20260902062809 64 157 4.0 0.0 0.00 0.10 0.00 82 1062.5
20260902062647 64 225 5.0 0.0 0.00 0.10 0.00 82 1062.5
20260902062535 64 157 4.0 0.0 0.00 0.10 0.00 83 1062.6
20260902062422 64 180 3.0 0.0 0.00 0.10 0.00 84 1062.6
20260902062305 64 202 3.0 0.0 0.00 0.10 0.00 85 1062.6
20260902062155 63 157 1.0 0.0 0.00 0.10 0.00 86 1062.6
20260902062049 63 225 7.0 0.0 0.00 0.10 0.00 87 1062.6
20260902061935 62 202 6.0 0.0 0.00 0.10 0.00 88 1062.6
20260902061824 62 157 4.0 0.0 0.00 0.10 0.00 88 1062.6
20260902061717 62 180 6.0 0.0 0.00 0.10 0.00 89 1062.7
20260902061604 62 157 0.0 0.0 0.00 0.10 0.00 90 1062.6
20260902061450 62 180 0.0 0.0 0.00 0.10 0.00 90 1062.6
20260902061329 62 180 7.0 0.0 0.00 0.10 0.00 90 1062.7
20260902061222 61 180 2.0 0.0 0.00 0.10 0.00 91 1062.6
20260902061116 61 202 0.0 0.0 0.00 0.10 0.00 90 1062.6
20260902061003 60 180 6.0 0.0 0.00 0.10 0.00 91 1062.6
20260902060857 60 135 3.0 0.0 0.00 0.10 0.00 91 1062.7
20260902060751 59 180 0.0 0.0 0.00 0.10 0.00 91 1062.6
20260902060629 59 202 0.0 0.0 0.00 0.10 0.00 91 1062.6
20260902060526 58 202 0.0 0.0 0.00 0.10 0.00 91 1062.6
20260902060419 58 180 0.0 0.0 0.00 0.10 0.00 91 1062.7
20260902060306 58 202 0.0 0.0 0.00 0.10 0.00 91 1062.7
20260902060201 58 202 0.0 0.0 0.00 0.10 0.00 91 1062.7
20260902060056 58 202 3.0 0.0 0.00 0.10 0.00 91 1062.6
20260902055951 58 180 3.0 0.0 0.00 0.10 0.00 91 1062.6
20260902055821 57 180 0.0 0.0 0.00 0.10 0.00 91 1062.6
20260902055707 57 180 5.0 0.0 0.00 0.10 0.00 91 1062.6
20260902055547 57 202 0.0 0.0 0.00 0.10 0.00 91 1062.6
20260902055434 57 180 0.0 0.0 0.00 0.10 0.00 91 1062.7
20260902055321 57 180 2.0 0.0 0.00 0.10 0.00 91 1062.7
20260902055207 57 157 5.0 0.0 0.00 0.10 0.00 91 1062.7
20260902055054 57 180 5.0 0.0 0.00 0.10 0.00 91 1062.7
20260902054943 57 180 3.0 0.0 0.00 0.10 0.00 91 1062.7
20260902054837 57 180 4.0 0.0 0.00 0.10 0.00 91 1062.7
20260902054731 57 180 2.0 0.0 0.00 0.10 0.00 91 1062.7
20260902054609 57 180 0.0 0.0 0.00 0.10 0.00 91 1062.6
20260902054457 57 180 0.0 0.0 0.00 0.10 0.00 91 1062.7
20260902054344 57 202 0.0 0.0 0.00 0.10 0.00 91 1062.7
20260902054231 57 202 0.0 0.0 0.00 0.10 0.00 91 1062.6
20260902054124 57 202 0.0 0.0 0.00 0.10 0.00 91 1062.7
20260902054004 57 202 0.0 0.0 0.00 0.10 0.00 91 1062.7
20260902053846 57 202 0.0 0.0 0.00 0.10 0.00 91 1062.6
20260902053729 57 202 0.0 0.0 0.00 0.10 0.00 91 1062.7
20260902053609 57 202 0.0 0.0 0.00 0.10 0.00 91 1062.6
20260902053456 57 202 0.0 0.0 0.00 0.10 0.00 91 1062.6
20260902053350 57 202 2.0 0.0 0.00 0.10 0.00 92 1062.6
20260902053229 57 180 0.0 0.0 0.00 0.10 0.00 91 1062.6
20260902053117 57 157 0.0 0.0 0.00 0.10 0.00 91 1062.6
20260902053004 57 180 0.0 0.0 0.00 0.10 0.00 91 1062.6
20260902052858 57 180 0.0 0.0 0.00 0.10 0.00 91 1062.7
20260902052747 57 180 0.0 0.0 0.00 0.10 0.00 91 1062.7
20260902052632 57 180 0.0 0.0 0.00 0.10 0.00 91 1062.6
20260902052510 57 180 0.0 0.0 0.00 0.10 0.00 91 1062.6
20260902052350 57 202 2.0 0.0 0.00 0.10 0.00 91 1062.7
20260902052236 57 180 5.0 0.0 0.00 0.10 0.00 91 1062.6
20260902052115 56 202 3.0 0.0 0.00 0.10 0.00 91 1062.6
20260902052002 56 180 0.0 0.0 0.00 0.10 0.00 91 1062.7
20260902051849 57 180 2.0 0.0 0.00 0.10 0.00 91 1062.6
20260902051727 56 157 5.0 0.0 0.00 0.10 0.00 91 1062.6
20260902051607 56 180 3.0 0.0 0.00 0.10 0.00 91 1062.7
20260902051503 56 202 3.0 0.0 0.00 0.10 0.00 91 1062.7
20260902051357 56 180 2.0 0.0 0.00 0.10 0.00 91 1062.7
20260902051251 56 180 2.0 0.0 0.00 0.10 0.00 91 1062.6
20260902051138 56 180 1.0 0.0 0.00 0.10 0.00 91 1062.6
20260902051033 56 180 3.0 0.0 0.00 0.10 0.00 91 1062.7
20260902050920 56 157 0.0 0.0 0.00 0.10 0.00 91 1062.6
20260902050806 56 180 0.0 0.0 0.00 0.10 0.00 91 1062.6
20260902050653 57 180 0.0 0.0 0.00 0.10 0.00 91 1062.6
20260902050541 56 157 0.0 0.0 0.00 0.10 0.00 91 1062.7
20260902050435 56 202 6.0 0.0 0.00 0.10 0.00 91 1062.7
20260902050322 56 157 4.0 0.0 0.00 0.10 0.00 91 1062.6
20260902050201 56 180 4.0 0.0 0.00 0.10 0.00 91 1062.6
20260902050041 56 157 0.0 0.0 0.00 0.10 0.00 91 1062.6
20260902045935 56 157 0.0 0.0 0.00 0.12 0.00 91 1062.6
20260902045813 57 157 4.0 0.0 0.00 0.12 0.00 91 1062.7
20260902045701 56 180 4.0 0.0 0.00 0.12 0.00 91 1062.7
20260902045541 56 202 3.0 0.0 0.00 0.12 0.00 91 1062.6
20260902045437 56 202 4.0 0.0 0.00 0.12 0.00 91 1062.6
20260902045329 56 157 2.0 0.0 0.00 0.12 0.00 91 1062.7
20260902045208 56 202 6.0 0.0 0.00 0.12 0.00 91 1062.6
20260902045041 56 180 0.0 0.0 0.00 0.12 0.00 91 1062.6
20260902044933 56 157 0.0 0.0 0.00 0.12 0.00 91 1062.5
20260902044821 57 180 0.0 0.0 0.00 0.12 0.00 91 1062.6
20260902044715 57 180 0.0 0.0 0.00 0.12 0.00 91 1062.6
20260902044602 57 180 0.0 0.0 0.00 0.12 0.00 91 1062.5
20260902044441 57 202 0.0 0.0 0.00 0.12 0.00 91 1062.5
20260902044328 57 157 0.0 0.0 0.00 0.12 0.00 91 1062.7
20260902044223 57 157 0.0 0.0 0.00 0.12 0.00 91 1062.6
20260902044119 57 157 0.0 0.0 0.00 0.12 0.00 91 1062.6
20260902044013 57 157 0.0 0.0 0.00 0.12 0.00 91 1062.6
20260902043908 57 180 0.0 0.0 0.00 0.12 0.00 91 1062.6
20260902043757 57 180 2.0 0.0 0.00 0.12 0.00 91 1062.7
20260902043650 57 180 0.0 0.0 0.00 0.12 0.00 91 1062.6
20260902043537 57 180 4.0 0.0 0.00 0.12 0.00 91 1062.7
20260902043426 57 180 0.0 0.0 0.00 0.12 0.00 91 1062.7
20260902043318 57 157 4.0 0.0 0.00 0.12 0.00 91 1062.7
20260902043157 57 180 4.0 0.0 0.00 0.12 0.00 91 1062.6
20260902043038 57 180 4.0 0.0 0.00 0.12 0.00 91 1062.6
20260902042930 57 180 0.0 0.0 0.00 0.12 0.00 91 1062.8
20260902042754 57 180 5.0 0.0 0.00 0.12 0.00 91 1062.7
20260902042641 57 157 4.0 0.0 0.00 0.12 0.00 91 1062.7
20260902042519 57 157 0.0 0.0 0.00 0.12 0.00 92 1062.7
20260902042406 57 157 0.0 0.0 0.00 0.12 0.00 91 1062.7
20260902042244 57 157 0.0 0.0 0.00 0.12 0.00 92 1062.7
20260902042126 57 157 0.0 0.0 0.00 0.12 0.00 92 1062.7
20260902042019 57 157 6.0 0.0 0.00 0.12 0.00 92 1062.7
20260902041857 57 202 0.0 0.0 0.00 0.12 0.00 91 1062.7
20260902041736 57 202 0.0 0.0 0.00 0.12 0.00 92 1062.8
20260902041623 57 180 5.0 0.0 0.00 0.12 0.00 92 1062.7
20260902041518 57 180 4.0 0.0 0.00 0.12 0.00 92 1062.7
20260902041356 57 157 6.0 0.0 0.00 0.12 0.00 92 1062.7
20260902041246 57 135 0.0 0.0 0.00 0.12 0.00 92 1062.7
20260902041138 57 202 2.0 0.0 0.00 0.12 0.00 92 1062.7
20260902041026 57 157 6.0 0.0 0.00 0.12 0.00 92 1062.7
20260902040921 57 202 2.0 0.0 0.00 0.12 0.00 92 1062.8
20260902040815 57 202 4.0 0.0 0.00 0.12 0.00 92 1062.8
20260902040703 57 157 4.0 0.0 0.00 0.12 0.00 92 1062.8
20260902040551 57 157 0.0 0.0 0.00 0.12 0.00 92 1062.8
20260902040424 57 157 4.0 0.0 0.00 0.12 0.00 92 1062.8
20260902040310 57 202 6.0 0.0 0.00 0.12 0.00 92 1062.9
20260902040156 57 180 5.0 0.0 0.00 0.12 0.00 92 1062.8
20260902040041 57 202 4.0 0.0 0.00 0.12 0.00 92 1062.8
20260902035935 57 202 6.0 0.0 0.00 0.12 0.00 92 1062.8
20260902035815 57 157 5.0 0.0 0.00 0.12 0.00 92 1062.8
20260902035710 57 202 1.0 0.0 0.00 0.12 0.00 92 1062.9
20260902035605 57 157 0.0 0.0 0.00 0.12 0.00 92 1062.8
20260902035500 57 157 3.0 0.0 0.00 0.12 0.00 92 1062.9
20260902035346 57 180 6.0 0.0 0.00 0.12 0.00 92 1062.9
20260902035233 57 180 4.0 0.0 0.00 0.12 0.00 92 1062.9
20260902035128 57 202 0.0 0.0 0.00 0.12 0.00 92 1062.9
20260902035014 57 157 0.0 0.0 0.00 0.12 0.00 92 1062.9
20260902034853 57 157 4.0 0.0 0.00 0.12 0.00 92 1062.9
20260902034741 57 202 0.0 0.0 0.00 0.12 0.00 92 1062.9
20260902034635 57 157 2.0 0.0 0.00 0.12 0.00 92 1062.9
20260902034515 57 157 0.0 0.0 0.00 0.12 0.00 92 1062.9
20260902034409 57 180 0.0 0.0 0.00 0.12 0.00 92 1062.9
20260902034256 57 202 5.0 0.0 0.00 0.12 0.00 92 1062.9
20260902034143 57 180 3.0 0.0 0.00 0.12 0.00 92 1062.9
20260902034032 57 225 4.0 0.0 0.00 0.12 0.00 92 1063.0
20260902033925 57 180 4.0 0.0 0.00 0.12 0.00 92 1062.9
20260902033812 57 180 0.0 0.0 0.00 0.12 0.00 92 1063.0
20260902033708 57 180 0.0 0.0 0.00 0.12 0.00 92 1063.0
20260902033602 57 202 2.0 0.0 0.00 0.12 0.00 92 1062.9
20260902033448 57 225 3.0 0.0 0.00 0.12 0.00 92 1063.0
20260902033336 57 180 0.0 0.0 0.00 0.12 0.00 92 1063.0
20260902033230 57 202 4.0 0.0 0.00 0.12 0.00 92 1063.0
20260902033119 57 180 2.0 0.0 0.00 0.12 0.00 92 1063.0
20260902033013 57 202 4.0 0.0 0.00 0.12 0.00 92 1063.0
20260902032907 57 202 0.0 0.0 0.00 0.12 0.00 92 1063.0
20260902032755 57 157 4.0 0.0 0.00 0.12 0.00 92 1063.0
20260902032642 57 225 4.0 0.0 0.00 0.12 0.00 92 1063.0
20260902032536 57 202 6.0 0.0 0.00 0.12 0.00 92 1063.0
20260902032423 57 247 3.0 0.0 0.00 0.12 0.00 92 1063.0
20260902032310 57 202 6.0 0.0 0.00 0.12 0.00 92 1063.0
20260902032149 57 202 6.0 0.0 0.00 0.12 0.00 92 1063.0
20260902032044 57 180 5.0 0.0 0.00 0.12 0.00 92 1063.1
20260902031931 57 157 0.0 0.0 0.00 0.12 0.00 92 1063.1
20260902031825 57 202 3.0 0.0 0.00 0.12 0.00 92 1063.1
20260902031712 57 180 0.0 0.0 0.00 0.12 0.00 92 1063.1
20260902031559 57 180 5.0 0.0 0.00 0.12 0.00 92 1063.1
20260902031447 57 157 0.0 0.0 0.00 0.12 0.00 92 1063.1
20260902031332 57 180 0.0 0.0 0.00 0.12 0.00 92 1063.1
20260902031211 57 157 4.0 0.0 0.00 0.12 0.00 92 1063.1
20260902031101 57 202 4.0 0.0 0.00 0.12 0.00 92 1063.1
20260902030954 57 225 2.0 0.0 0.00 0.12 0.00 92 1063.1
20260902030841 57 202 0.0 0.0 0.00 0.12 0.00 92 1063.1
20260902030737 57 180 0.0 0.0 0.00 0.12 0.00 92 1063.1
20260902030631 57 225 6.0 0.0 0.00 0.12 0.00 92 1063.2
20260902030526 57 202 5.0 0.0 0.00 0.12 0.00 92 1063.2
20260902030421 57 157 5.0 0.0 0.00 0.12 0.00 92 1063.2
20260902030316 57 202 0.0 0.0 0.00 0.12 0.00 92 1063.2
20260902030211 57 202 6.0 0.0 0.00 0.12 0.00 92 1063.2
20260902030057 57 202 0.0 0.0 0.00 0.12 0.00 92 1063.2
20260902025946 57 202 4.0 0.0 0.00 0.12 0.00 92 1063.2
20260902025831 57 180 1.0 0.0 0.00 0.12 0.00 92 1063.2
20260902025718 57 157 5.0 0.0 0.00 0.12 0.00 92 1063.2
20260902025613 57 180 5.0 0.0 0.00 0.12 0.00 92 1063.3
20260902025500 57 180 0.0 0.0 0.00 0.12 0.00 92 1063.3
20260902025341 56 202 0.0 0.0 0.00 0.12 0.00 92 1063.2
20260902025234 56 180 0.0 0.0 0.00 0.12 0.00 92 1063.2
20260902025121 56 157 4.0 0.0 0.00 0.12 0.00 92 1063.2
20260902025017 56 202 4.0 0.0 0.00 0.12 0.00 92 1063.2
20260902024902 56 180 5.0 0.0 0.00 0.12 0.00 92 1063.2
20260902024742 56 202 4.0 0.0 0.00 0.12 0.00 92 1063.3
20260902024636 56 157 0.0 0.0 0.00 0.12 0.00 92 1063.2
20260902024523 56 157 5.0 0.0 0.00 0.12 0.00 92 1063.2
20260902024419 56 180 0.0 0.0 0.00 0.12 0.00 92 1063.2
20260902024313 56 180 0.0 0.0 0.00 0.12 0.00 92 1063.2
20260902024208 56 157 0.0 0.0 0.00 0.12 0.00 92 1063.2
20260902024057 56 202 0.0 0.0 0.00 0.12 0.00 92 1063.3
20260902023950 56 180 0.0 0.0 0.00 0.12 0.00 92 1063.3
20260902023837 56 180 0.0 0.0 0.00 0.12 0.00 92 1063.3
20260902023724 56 180 0.0 0.0 0.00 0.12 0.00 92 1063.2
20260902023611 56 157 0.0 0.0 0.00 0.12 0.00 92 1063.2
20260902023459 56 157 0.0 0.0 0.00 0.12 0.00 92 1063.2
20260902023344 56 180 3.0 0.0 0.00 0.12 0.00 92 1063.2
20260902023233 56 180 0.0 0.0 0.00 0.12 0.00 92 1063.2
20260902023127 56 180 0.0 0.0 0.00 0.12 0.00 92 1063.3
20260902023020 56 180 0.0 0.0 0.00 0.12 0.00 92 1063.2
20260902022901 56 180 0.0 0.0 0.00 0.12 0.00 92 1063.2
20260902022755 56 180 0.0 0.0 0.00 0.12 0.00 92 1063.2
20260902022650 56 180 0.0 0.0 0.00 0.12 0.00 92 1063.2
20260902022530 57 180 2.0 0.0 0.00 0.12 0.00 92 1063.2
20260902022424 57 180 0.0 0.0 0.00 0.12 0.00 92 1063.2
20260902022311 57 180 3.0 0.0 0.00 0.12 0.00 92 1063.3
20260902022206 57 180 0.0 0.0 0.00 0.12 0.00 92 1063.2
20260902022101 57 180 0.0 0.0 0.00 0.12 0.00 92 1063.2
20260902021940 57 202 2.0 0.0 0.00 0.12 0.00 92 1063.2
20260902021837 57 202 0.0 0.0 0.00 0.12 0.00 92 1063.2
20260902021729 57 202 0.0 0.0 0.00 0.12 0.00 92 1063.3
20260902021616 57 202 0.0 0.0 0.00 0.12 0.00 92 1063.3
20260902021454 57 202 0.0 0.0 0.00 0.12 0.00 92 1063.3
20260902021334 57 225 0.0 0.0 0.00 0.12 0.00 92 1063.3
20260902021220 57 180 4.0 0.0 0.00 0.12 0.00 92 1063.3
20260902021100 57 180 0.0 0.0 0.00 0.12 0.00 92 1063.3
20260902020946 57 202 0.0 0.0 0.00 0.12 0.00 92 1063.4
20260902020827 57 180 0.0 0.0 0.00 0.12 0.00 92 1063.3
20260902020712 57 202 0.0 0.0 0.00 0.12 0.00 92 1063.3
20260902020550 57 202 0.0 0.0 0.00 0.12 0.00 92 1063.3
20260902020430 57 202 0.0 0.0 0.00 0.12 0.00 92 1063.3
20260902020309 57 180 4.0 0.0 0.00 0.12 0.00 92 1063.3
20260902020155 57 202 0.0 0.0 0.00 0.12 0.00 92 1063.3
20260902020034 57 202 0.0 0.0 0.00 0.12 0.00 92 1063.2
20260902015921 57 202 2.0 0.0 0.00 0.12 0.00 92 1063.3
20260902015808 57 202 4.0 0.0 0.00 0.12 0.00 92 1063.2
20260902015646 57 180 0.0 0.0 0.00 0.12 0.00 92 1063.2
20260902015528 57 180 6.0 0.0 0.00 0.12 0.00 92 1063.2
20260902015422 57 202 0.0 0.0 0.00 0.12 0.00 92 1063.3
20260902015315 57 180 0.0 0.0 0.00 0.12 0.00 92 1063.3
20260902015156 56 180 0.0 0.0 0.00 0.12 0.00 92 1063.3
20260902015049 57 180 0.0 0.0 0.00 0.12 0.00 92 1063.3
20260902014930 56 202 0.0 0.0 0.00 0.12 0.00 92 1063.3
20260902014825 56 225 0.0 0.0 0.00 0.12 0.00 92 1063.3
20260902014720 56 180 0.0 0.0 0.00 0.12 0.00 92 1063.3
20260902014612 56 202 2.0 0.0 0.00 0.12 0.00 92 1063.2
20260902014453 56 180 2.0 0.0 0.00 0.12 0.00 92 1063.3
20260902014346 56 180 3.0 0.0 0.00 0.12 0.00 92 1063.3
20260902014234 56 225 0.0 0.0 0.00 0.12 0.00 92 1063.3
20260902014112 56 180 0.0 0.0 0.00 0.12 0.00 92 1063.3
20260902013959 56 180 0.0 0.0 0.00 0.12 0.00 92 1063.2
20260902013846 56 202 4.0 0.0 0.00 0.12 0.00 92 1063.3
20260902013734 56 225 3.0 0.0 0.00 0.12 0.00 92 1063.3
20260902013612 56 202 0.0 0.0 0.00 0.12 0.00 92 1063.3
20260902013458 56 202 0.0 0.0 0.00 0.12 0.00 92 1063.3
20260902013345 56 202 0.0 0.0 0.00 0.12 0.00 92 1063.3
20260902013232 56 202 0.0 0.0 0.00 0.12 0.00 92 1063.3
20260902013120 56 202 0.0 0.0 0.00 0.12 0.00 92 1063.3
20260902013015 56 202 0.0 0.0 0.00 0.12 0.00 92 1063.3
20260902012908 56 180 0.0 0.0 0.00 0.12 0.00 92 1063.1
20260902012748 56 202 0.0 0.0 0.00 0.12 0.00 92 1063.2
20260902012627 56 180 0.0 0.0 0.00 0.12 0.00 92 1063.3
20260902012513 56 180 0.0 0.0 0.00 0.12 0.00 92 1063.3
20260902012346 56 180 0.0 0.0 0.00 0.12 0.00 92 1063.2
20260902012239 56 180 0.0 0.0 0.00 0.12 0.00 92 1063.3
20260902012126 56 180 0.0 0.0 0.00 0.12 0.00 91 1063.3
20260902012005 56 202 0.0 0.0 0.00 0.12 0.00 92 1063.3
20260902011852 56 202 0.0 0.0 0.00 0.12 0.00 91 1063.3
20260902011730 56 180 2.0 0.0 0.00 0.12 0.00 91 1063.3
20260902011610 56 202 0.0 0.0 0.00 0.12 0.00 91 1063.3
20260902011505 56 202 2.0 0.0 0.00 0.12 0.00 91 1063.3
20260902011359 56 180 4.0 0.0 0.00 0.12 0.00 91 1063.3
20260902011246 56 180 0.0 0.0 0.00 0.12 0.00 91 1063.3
20260902011126 56 180 0.0 0.0 0.00 0.12 0.00 91 1063.3
20260902011006 56 180 0.0 0.0 0.00 0.12 0.00 91 1063.3
20260902010858 56 202 5.0 0.0 0.00 0.12 0.00 91 1063.3
20260902010745 56 202 0.0 0.0 0.00 0.12 0.00 91 1063.3
20260902010616 56 202 3.0 0.0 0.00 0.12 0.00 91 1063.4
20260902010447 56 202 0.0 0.0 0.00 0.12 0.00 91 1063.3
20260902010325 56 202 2.0 0.0 0.00 0.12 0.00 91 1063.4
20260902005954 55 202 0.0 0.0 0.00 0.12 0.00 91 1063.4
20260902005840 55 202 0.0 0.0 0.00 0.12 0.00 91 1063.4
20260902005721 55 225 0.0 0.0 0.00 0.12 0.00 91 1063.4
20260902005614 55 180 0.0 0.0 0.00 0.12 0.00 91 1063.4
20260902005454 55 202 0.0 0.0 0.00 0.12 0.00 91 1063.4
20260902005340 55 202 0.0 0.0 0.00 0.12 0.00 91 1063.4
20260902005210 55 180 0.0 0.0 0.00 0.12 0.00 91 1063.4
20260902005044 55 180 0.0 0.0 0.00 0.12 0.00 91 1063.4
20260902004936 55 202 0.0 0.0 0.00 0.12 0.00 91 1063.4
20260902004807 55 180 0.0 0.0 0.00 0.12 0.00 91 1063.4
20260902004653 55 180 0.0 0.0 0.00 0.12 0.00 91 1063.4
20260902004541 55 202 4.0 0.0 0.00 0.12 0.00 91 1063.4
20260902004427 55 180 0.0 0.0 0.00 0.12 0.00 91 1063.3
20260902004258 55 180 0.0 0.0 0.00 0.12 0.00 90 1063.3
20260902004152 55 202 0.0 0.0 0.00 0.12 0.00 90 1063.4
20260902004030 55 225 0.0 0.0 0.00 0.12 0.00 90 1063.4
20260902003915 55 225 0.0 0.0 0.00 0.12 0.00 90 1063.4
20260902003801 55 225 0.0 0.0 0.00 0.12 0.00 90 1063.4
20260902003655 55 225 0.0 0.0 0.00 0.12 0.00 90 1063.5
20260902003542 55 225 0.0 0.0 0.00 0.12 0.00 90 1063.4
20260902003437 55 225 0.0 0.0 0.00 0.12 0.00 90 1063.4
20260902003320 55 225 0.0 0.0 0.00 0.12 0.00 90 1063.4
20260902003209 55 225 0.0 0.0 0.00 0.12 0.00 90 1063.5
20260902003100 55 225 0.0 0.0 0.00 0.12 0.00 90 1063.4
20260902002946 55 225 0.0 0.0 0.00 0.12 0.00 90 1063.5
20260902002834 55 225 0.0 0.0 0.00 0.12 0.00 90 1063.4
20260902002725 55 225 0.0 0.0 0.00 0.12 0.00 90 1063.4
20260902002606 55 225 0.0 0.0 0.00 0.12 0.00 90 1063.4
20260902002458 55 247 0.0 0.0 0.00 0.12 0.00 90 1063.4
20260902002353 55 247 0.0 0.0 0.00 0.12 0.00 90 1063.5
20260902002246 55 247 0.0 0.0 0.00 0.12 0.00 90 1063.4
20260902002131 55 247 0.0 0.0 0.00 0.12 0.00 90 1063.4
20260902002025 55 225 0.0 0.0 0.00 0.12 0.00 90 1063.5
20260902001910 55 202 0.0 0.0 0.00 0.12 0.00 90 1063.4
20260902001749 55 202 0.0 0.0 0.00 0.12 0.00 90 1063.4
20260902001626 55 202 0.0 0.0 0.00 0.12 0.00 90 1063.4
20260902001507 55 202 0.0 0.0 0.00 0.12 0.00 90 1063.4
20260902001403 55 202 0.0 0.0 0.00 0.12 0.00 90 1063.4
20260902001256 55 180 0.0 0.0 0.00 0.12 0.00 90 1063.4
20260902001145 55 180 0.0 0.0 0.00 0.12 0.00 90 1063.4
20260902001038 55 180 0.0 0.0 0.00 0.12 0.00 90 1063.4
20260902000920 55 202 0.0 0.0 0.00 0.12 0.00 90 1063.4
20260902000812 55 180 0.0 0.0 0.00 0.12 0.00 90 1063.4
20260902000643 55 180 0.0 0.0 0.00 0.12 0.00 90 1063.4
20260902000524 55 202 0.0 0.0 0.00 0.12 0.00 90 1063.5
20260902000416 56 202 0.0 0.0 0.00 0.12 0.00 90 1063.4
20260902000304 56 202 0.0 0.0 0.00 0.12 0.00 90 1063.4
20260902000147 56 202 0.0 0.0 0.00 0.12 0.00 90 1063.4
20260902000030 56 180 0.0 0.0 0.00 0.12 0.00 90 1063.5
20260901235921 56 180 0.0 0.0 0.00 0.12 0.00 90 1063.5
20260901235806 56 180 0.0 0.0 0.00 0.12 0.00 90 1063.5
20260901235636 56 180 0.0 0.0 0.00 0.12 0.00 90 1063.5
20260901235522 56 180 0.0 0.0 0.00 0.12 0.00 90 1063.4
20260901235416 56 180 0.0 0.0 0.00 0.12 0.00 90 1063.5
20260901235309 56 202 4.0 0.0 0.00 0.12 0.00 90 1063.5
20260901235157 56 180 0.0 0.0 0.00 0.12 0.00 90 1063.5
20260901235043 56 180 2.0 0.0 0.00 0.12 0.00 90 1063.4
20260901234935 56 202 0.0 0.0 0.00 0.12 0.00 90 1063.5
20260901234813 56 202 0.0 0.0 0.00 0.12 0.00 90 1063.5
20260901234706 56 180 0.0 0.0 0.00 0.12 0.00 89 1063.5
20260901234536 56 202 0.0 0.0 0.00 0.12 0.00 89 1063.5
20260901234422 56 180 0.0 0.0 0.00 0.12 0.00 89 1063.5
20260901234316 56 202 0.0 0.0 0.00 0.12 0.00 89 1063.5
20260901234155 56 202 0.0 0.0 0.00 0.12 0.00 89 1063.4
20260901234043 56 202 0.0 0.0 0.00 0.12 0.00 89 1063.4
20260901233929 56 202 0.0 0.0 0.00 0.12 0.00 89 1063.4
20260901233817 56 202 0.0 0.0 0.00 0.12 0.00 89 1063.4
20260901233712 56 202 0.0 0.0 0.00 0.12 0.00 89 1063.3
20260901233607 56 202 0.0 0.0 0.00 0.12 0.00 89 1063.4
20260901233459 56 202 2.0 0.0 0.00 0.12 0.00 89 1063.4
20260901233339 57 202 5.0 0.0 0.00 0.12 0.00 89 1063.4
20260901233226 57 202 0.0 0.0 0.00 0.12 0.00 89 1063.5
20260901233113 57 202 0.0 0.0 0.00 0.12 0.00 89 1063.4
20260901233001 57 202 0.0 0.0 0.00 0.12 0.00 89 1063.5
20260901232847 57 180 0.0 0.0 0.00 0.12 0.00 89 1063.5
20260901232742 57 180 0.0 0.0 0.00 0.12 0.00 89 1063.6
20260901232628 57 180 0.0 0.0 0.00 0.12 0.00 89 1063.5
20260901232510 57 180 0.0 0.0 0.00 0.12 0.00 89 1063.5
20260901232354 57 180 0.0 0.0 0.00 0.12 0.00 89 1063.5
20260901232240 57 180 5.0 0.0 0.00 0.12 0.00 89 1063.5
20260901232122 57 157 0.0 0.0 0.00 0.12 0.00 89 1063.5
20260901232016 57 157 3.0 0.0 0.00 0.12 0.00 89 1063.5
20260901231902 57 157 4.0 0.0 0.00 0.12 0.00 88 1063.5
20260901231759 57 157 4.0 0.0 0.00 0.12 0.00 88 1063.5
20260901231653 57 180 0.0 0.0 0.00 0.12 0.00 89 1063.5
20260901231533 57 157 0.0 0.0 0.00 0.12 0.00 88 1063.4
20260901231410 57 180 0.0 0.0 0.00 0.12 0.00 88 1063.5
20260901231250 57 180 0.0 0.0 0.00 0.12 0.00 88 1063.6
20260901231118 57 180 0.0 0.0 0.00 0.12 0.00 88 1063.6
20260901231013 57 180 0.0 0.0 0.00 0.12 0.00 88 1063.6
20260901230852 57 180 0.0 0.0 0.00 0.12 0.00 88 1063.6
20260901230731 58 180 0.0 0.0 0.00 0.12 0.00 88 1063.6
20260901230626 58 180 0.0 0.0 0.00 0.12 0.00 88 1063.5
20260901230520 58 180 0.0 0.0 0.00 0.12 0.00 88 1063.5
20260901230407 58 202 0.0 0.0 0.00 0.12 0.00 88 1063.6
20260901230238 58 225 0.0 0.0 0.00 0.12 0.00 88 1063.7
20260901230126 58 202 2.0 0.0 0.00 0.12 0.00 88 1063.7
20260901230011 58 180 0.0 0.0 0.00 0.12 0.00 88 1063.7
20260901225858 58 180 0.0 0.0 0.00 0.14 0.00 88 1063.7
20260901225746 58 202 0.0 0.0 0.00 0.14 0.00 88 1063.7
20260901225624 58 202 0.0 0.0 0.00 0.14 0.00 88 1063.6
20260901225513 58 202 6.0 0.0 0.00 0.14 0.00 88 1063.7
20260901225358 58 180 6.0 0.0 0.00 0.14 0.00 88 1063.7
20260901225245 58 225 0.0 0.0 0.00 0.14 0.00 88 1063.7
20260901225139 58 180 0.0 0.0 0.00 0.14 0.00 88 1063.7
20260901225027 58 202 4.0 0.0 0.00 0.14 0.00 88 1063.9
20260901224916 58 202 0.0 0.0 0.00 0.14 0.00 88 1063.8
20260901224809 59 202 0.0 0.0 0.00 0.14 0.00 88 1063.8
20260901224655 59 180 0.0 0.0 0.00 0.14 0.00 88 1063.8
20260901224544 59 202 0.0 0.0 0.00 0.14 0.00 88 1063.8
20260901224437 59 247 0.0 0.0 0.00 0.14 0.00 88 1063.8
20260901224316 59 202 0.0 0.0 0.00 0.14 0.00 88 1063.8
20260901224205 59 202 0.0 0.0 0.00 0.14 0.00 88 1063.8
20260901224058 59 202 2.0 0.0 0.00 0.14 0.00 88 1063.8
20260901223945 59 202 1.0 0.0 0.00 0.14 0.00 88 1063.8
20260901223823 59 270 0.0 0.0 0.00 0.14 0.00 88 1063.8
20260901223711 59 247 0.0 0.0 0.00 0.14 0.00 88 1063.9
20260901223549 59 202 0.0 0.0 0.00 0.14 0.00 88 1063.9
20260901223427 59 202 0.0 0.0 0.00 0.14 0.00 88 1063.9
20260901223257 59 225 0.0 0.0 0.00 0.14 0.00 88 1064.0
20260901223147 59 247 6.0 0.0 0.00 0.14 0.00 88 1063.9